Time,TemperatureF,DewpointF,PressureIn,WindDirection,WindDirectionDegrees,WindSpeedMPH,WindSpeedGustMPH,Humidity,HourlyPrecipIn,Conditions,Clouds,dailyrainin,SoftwareType,DateUTC
2013-06-17 00:01:00,72.1,72.2,17.72,ENE,57,0.0,0.0,100,0.00,,,0.00,VWS V13.01,2013-06-17 05:01:00,
2013-06-17 00:02:00,72.1,72.2,17.72,ENE,57,0.0,0.0,100,0.00,,,0.00,VWS V13.01,2013-06-17 05:02:00,
2013-06-17 00:06:00,72.5,72.5,17.72,ENE,57,0.0,0.0,100,0.00,,,0.00,VWS V13.01,2013-06-17 05:06:00,
2013-06-17 00:07:00,72.5,72.5,17.72,ENE,57,0.0,0.0,100,0.00,,,0.00,VWS V13.01,2013-06-17 05:07:00,
2013-06-17 00:11:00,72.7,72.7,17.72,ENE,62,0.0,0.0,100,0.00,,,0.00,VWS V13.01,2013-06-17 05:11:00,
2013-06-17 00:12:00,72.7,72.7,17.72,ENE,76,0.0,0.0,100,0.00,,,0.00,VWS V13.01,2013-06-17 05:12:00,
2013-06-17 00:16:00,72.9,72.9,17.72,NE,50,0.0,0.0,100,0.00,,,0.00,VWS V13.01,2013-06-17 05:16:00,
2013-06-17 00:17:00,72.9,72.9,17.72,NE,50,0.0,0.0,100,0.00,,,0.00,VWS V13.01,2013-06-17 05:17:00,
2013-06-17 00:21:00,72.7,72.7,17.72,ENE,78,0.0,0.0,100,0.00,,,0.00,VWS V13.01,2013-06-17 05:21:00,
2013-06-17 00:22:00,72.7,72.7,17.72,ENE,78,0.0,0.0,100,0.00,,,0.00,VWS V13.01,2013-06-17 05:22:00,
2013-06-17 00:27:00,72.5,72.5,17.72,NE,53,0.0,0.0,100,0.00,,,0.00,VWS V13.01,2013-06-17 05:27:00,
2013-06-17 00:32:00,72.5,72.5,17.72,ENE,68,0.0,0.0,100,0.00,,,0.00,VWS V13.01,2013-06-17 05:32:00,
2013-06-17 00:37:00,72.3,72.3,17.72,ENE,65,0.0,0.0,100,0.00,,,0.00,VWS V13.01,2013-06-17 05:37:00,
2013-06-17 00:42:00,72.0,72.0,17.72,ENE,65,0.0,0.0,100,0.00,,,0.00,VWS V13.01,2013-06-17 05:42:00,
2013-06-17 00:47:00,72.0,72.0,17.72,ENE,65,0.0,0.0,100,0.00,,,0.00,VWS V13.01,2013-06-17 05:47:00,
2013-06-17 00:52:00,72.0,72.0,17.72,ENE,70,0.0,0.0,100,0.00,,,0.00,VWS V13.01,2013-06-17 05:52:00,
2013-06-17 00:57:00,72.1,72.2,17.72,ENE,72,0.0,0.0,100,0.00,,,0.00,VWS V13.01,2013-06-17 05:57:00,
2013-06-17 00:58:00,72.1,72.2,17.72,ENE,75,0.0,0.0,100,0.00,,,0.00,VWS V13.01,2013-06-17 05:58:00,
2013-06-17 01:02:00,72.1,72.2,17.72,ENE,63,0.0,0.0,100,0.00,,,0.00,VWS V13.01,2013-06-17 06:02:00,
2013-06-17 01:03:00,72.1,72.2,17.72,East,101,0.0,0.0,100,0.00,,,0.00,VWS V13.01,2013-06-17 06:03:00,
2013-06-17 01:07:00,72.0,72.0,17.72,East,87,0.0,0.0,100,0.00,,,0.00,VWS V13.01,2013-06-17 06:07:00,
2013-06-17 01:08:00,72.0,72.0,17.72,East,87,0.0,0.0,100,0.00,,,0.00,VWS V13.01,2013-06-17 06:08:00,
2013-06-17 01:12:00,72.1,72.2,17.72,East,87,0.0,0.0,100,0.00,,,0.00,VWS V13.01,2013-06-17 06:12:00,
2013-06-17 01:13:00,72.1,72.2,17.72,East,87,0.0,0.0,100,0.00,,,0.00,VWS V13.01,2013-06-17 06:13:00,
2013-06-17 01:17:00,72.3,72.3,17.72,East,87,0.0,0.0,100,0.00,,,0.00,VWS V13.01,2013-06-17 06:17:00,
2013-06-17 01:18:00,72.3,72.3,17.72,East,87,0.0,0.0,100,0.00,,,0.00,VWS V13.01,2013-06-17 06:18:00,
2013-06-17 01:22:00,72.3,72.3,17.72,NNW,344,0.0,0.0,100,0.00,,,0.00,VWS V13.01,2013-06-17 06:22:00,
2013-06-17 01:23:00,72.3,72.3,17.72,NNW,344,0.0,0.0,100,0.00,,,0.00,VWS V13.01,2013-06-17 06:23:00,
2013-06-17 01:28:00,72.5,72.5,17.72,NNE,22,0.0,0.0,100,0.00,,,0.00,VWS V13.01,2013-06-17 06:28:00,
2013-06-17 01:33:00,72.5,72.5,17.72,ENE,65,0.0,0.0,100,0.00,,,0.00,VWS V13.01,2013-06-17 06:33:00,
2013-06-17 01:38:00,72.5,72.5,17.72,NE,44,0.0,0.0,100,0.00,,,0.00,VWS V13.01,2013-06-17 06:38:00,
2013-06-17 01:39:00,72.5,72.5,17.72,NE,44,0.0,0.0,100,0.00,,,0.00,VWS V13.01,2013-06-17 06:39:00,
2013-06-17 01:43:00,72.3,72.3,17.72,ENE,77,0.0,0.0,100,0.00,,,0.00,VWS V13.01,2013-06-17 06:43:00,
2013-06-17 01:44:00,72.3,72.3,17.72,ENE,77,0.0,0.0,100,0.00,,,0.00,VWS V13.01,2013-06-17 06:44:00,
2013-06-17 01:48:00,72.1,72.2,17.72,ENE,77,0.0,0.0,100,0.00,,,0.00,VWS V13.01,2013-06-17 06:48:00,
2013-06-17 01:49:00,72.0,72.0,17.72,ENE,77,0.0,0.0,100,0.00,,,0.00,VWS V13.01,2013-06-17 06:49:00,
2013-06-17 01:53:00,72.0,72.0,17.72,East,87,0.0,0.0,100,0.04,,,0.04,VWS V13.01,2013-06-17 06:53:00,
2013-06-17 01:54:00,72.0,72.0,17.72,East,82,0.0,0.0,100,0.04,,,0.04,VWS V13.01,2013-06-17 06:54:00,
2013-06-17 01:58:00,71.8,71.8,17.72,ENE,76,0.0,0.0,100,0.08,,,0.08,VWS V13.01,2013-06-17 06:58:00,
2013-06-17 01:59:00,71.8,71.8,17.72,ENE,76,0.0,0.0,100,0.08,,,0.08,VWS V13.01,2013-06-17 06:59:00,
2013-06-17 02:03:00,71.8,71.8,17.72,ENE,77,0.0,0.0,100,0.08,,,0.08,VWS V13.01,2013-06-17 07:03:00,
2013-06-17 02:04:00,71.8,71.8,17.72,ENE,69,0.0,0.0,100,0.08,,,0.08,VWS V13.01,2013-06-17 07:04:00,
2013-06-17 02:08:00,71.8,71.8,17.72,ENE,77,0.0,0.0,100,0.08,,,0.08,VWS V13.01,2013-06-17 07:08:00,
2013-06-17 02:09:00,71.8,71.8,17.72,East,83,0.0,0.0,100,0.08,,,0.08,VWS V13.01,2013-06-17 07:09:00,
2013-06-17 02:13:00,71.8,71.8,17.72,East,98,0.0,0.0,100,0.08,,,0.08,VWS V13.01,2013-06-17 07:13:00,
2013-06-17 02:14:00,71.6,71.6,17.72,East,98,0.0,0.0,100,0.08,,,0.08,VWS V13.01,2013-06-17 07:14:00,
2013-06-17 02:18:00,71.8,71.8,17.72,SSW,198,0.0,0.0,100,0.08,,,0.08,VWS V13.01,2013-06-17 07:18:00,
2013-06-17 02:19:00,71.6,71.6,17.72,SSW,193,0.0,0.0,100,0.08,,,0.08,VWS V13.01,2013-06-17 07:19:00,
2013-06-17 02:23:00,71.2,71.2,17.72,SSW,194,5.4,5.4,100,0.08,,,0.08,VWS V13.01,2013-06-17 07:23:00,
2013-06-17 02:24:00,71.2,71.2,17.72,SW,225,0.0,0.0,100,0.08,,,0.08,VWS V13.01,2013-06-17 07:24:00,
2013-06-17 02:28:00,70.3,70.3,17.72,South,187,8.3,8.3,100,0.08,,,0.08,VWS V13.01,2013-06-17 07:28:00,
2013-06-17 02:29:00,70.3,70.3,17.72,South,191,7.6,7.6,100,0.08,,,0.08,VWS V13.01,2013-06-17 07:29:00,
2013-06-17 02:33:00,69.8,69.8,17.72,South,184,10.5,10.5,100,0.12,,,0.12,VWS V13.01,2013-06-17 07:33:00,
2013-06-17 02:34:00,69.4,69.4,17.72,South,177,15.0,15.0,100,0.12,,,0.12,VWS V13.01,2013-06-17 07:34:00,
2013-06-17 02:38:00,69.1,69.1,17.72,SSE,168,10.5,10.5,100,0.16,,,0.20,VWS V13.01,2013-06-17 07:38:00,
2013-06-17 02:39:00,68.9,68.9,17.72,South,183,8.3,8.3,100,0.20,,,0.24,VWS V13.01,2013-06-17 07:39:00,
2013-06-17 02:43:00,69.1,69.1,17.72,South,173,15.4,15.4,100,0.35,,,0.35,VWS V13.01,2013-06-17 07:43:00,
2013-06-17 02:44:00,69.1,69.1,17.72,SW,219,12.8,12.8,100,0.35,,,0.35,VWS V13.01,2013-06-17 07:44:00,
2013-06-17 02:48:00,68.7,68.7,17.72,SSW,203,3.1,3.1,100,0.47,,,0.51,VWS V13.01,2013-06-17 07:48:00,
2013-06-17 02:49:00,68.7,68.7,17.72,South,191,3.6,3.6,100,0.47,,,0.51,VWS V13.01,2013-06-17 07:49:00,
2013-06-17 02:50:00,68.7,68.7,17.72,South,179,8.1,8.1,100,0.51,,,0.51,VWS V13.01,2013-06-17 07:50:00,
2013-06-17 02:53:00,68.2,68.2,17.72,South,173,18.3,18.3,100,0.55,,,0.55,VWS V13.01,2013-06-17 07:53:00,
2013-06-17 02:54:00,68.2,68.2,17.72,South,177,22.8,22.8,100,0.51,,,0.55,VWS V13.01,2013-06-17 07:54:00,
2013-06-17 02:55:00,68.4,68.4,17.72,South,178,13.2,13.2,100,0.51,,,0.55,VWS V13.01,2013-06-17 07:55:00,
2013-06-17 02:58:00,68.4,68.4,17.72,South,171,11.0,11.0,100,0.51,,,0.55,VWS V13.01,2013-06-17 07:58:00,
2013-06-17 02:59:00,68.4,68.4,17.72,SSW,193,12.8,12.8,100,0.47,,,0.55,VWS V13.01,2013-06-17 07:59:00,
2013-06-17 03:00:00,68.4,68.4,17.72,SSW,196,15.4,15.4,100,0.47,,,0.59,VWS V13.01,2013-06-17 08:00:00,
2013-06-17 03:03:00,67.5,67.5,17.72,South,178,17.4,17.4,100,0.51,,,0.59,VWS V13.01,2013-06-17 08:03:00,
2013-06-17 03:04:00,67.6,67.6,17.72,SSE,167,14.5,14.5,100,0.51,,,0.59,VWS V13.01,2013-06-17 08:04:00,
2013-06-17 03:05:00,67.5,67.5,17.72,SSE,161,11.9,11.9,100,0.51,,,0.59,VWS V13.01,2013-06-17 08:05:00,
2013-06-17 03:08:00,67.5,67.5,17.72,South,183,10.1,10.1,100,0.51,,,0.59,VWS V13.01,2013-06-17 08:08:00,
2013-06-17 03:09:00,67.5,67.5,17.72,South,180,13.2,13.2,100,0.51,,,0.59,VWS V13.01,2013-06-17 08:09:00,
2013-06-17 03:10:00,67.6,67.6,17.72,SSE,157,6.3,6.3,100,0.51,,,0.59,VWS V13.01,2013-06-17 08:10:00,
2013-06-17 03:13:00,67.8,67.8,17.72,South,179,8.1,8.1,100,0.55,,,0.63,VWS V13.01,2013-06-17 08:13:00,
2013-06-17 03:14:00,67.6,67.6,17.72,South,173,8.7,8.7,100,0.55,,,0.63,VWS V13.01,2013-06-17 08:14:00,
2013-06-17 03:15:00,67.6,67.6,17.72,SSE,155,8.7,8.7,100,0.55,,,0.63,VWS V13.01,2013-06-17 08:15:00,
2013-06-17 03:19:00,68.0,68.0,17.72,South,180,7.6,7.6,100,0.55,,,0.63,VWS V13.01,2013-06-17 08:19:00,
2013-06-17 03:20:00,68.4,68.4,17.72,South,179,8.3,8.3,100,0.55,,,0.63,VWS V13.01,2013-06-17 08:20:00,
2013-06-17 03:24:00,68.2,68.2,17.72,South,184,11.0,11.0,100,0.59,,,0.67,VWS V13.01,2013-06-17 08:24:00,
2013-06-17 03:25:00,68.2,68.2,17.72,SSW,204,8.1,8.1,100,0.59,,,0.67,VWS V13.01,2013-06-17 08:25:00,
2013-06-17 03:29:00,68.0,68.0,17.72,South,189,0.0,0.0,100,0.59,,,0.67,VWS V13.01,2013-06-17 08:29:00,
2013-06-17 03:30:00,67.8,67.8,17.72,South,189,0.0,0.0,100,0.59,,,0.67,VWS V13.01,2013-06-17 08:30:00,
2013-06-17 03:34:00,67.5,67.5,17.72,South,189,0.0,0.0,100,0.63,,,0.75,VWS V13.01,2013-06-17 08:34:00,
2013-06-17 03:35:00,67.5,67.5,17.72,South,189,0.0,0.0,100,0.63,,,0.75,VWS V13.01,2013-06-17 08:35:00,
2013-06-17 03:39:00,67.3,67.3,17.72,South,189,0.0,0.0,100,0.59,,,0.75,VWS V13.01,2013-06-17 08:39:00,
2013-06-17 03:40:00,67.3,67.3,17.72,South,189,0.0,0.0,100,0.55,,,0.75,VWS V13.01,2013-06-17 08:40:00,
2013-06-17 03:44:00,67.5,67.5,17.72,South,189,0.0,0.0,100,0.39,,,0.75,VWS V13.01,2013-06-17 08:44:00,
2013-06-17 03:45:00,67.6,67.6,17.72,South,189,0.0,0.0,100,0.39,,,0.75,VWS V13.01,2013-06-17 08:45:00,
2013-06-17 03:49:00,66.9,66.9,17.72,South,189,5.4,5.4,100,0.28,,,0.75,VWS V13.01,2013-06-17 08:49:00,
2013-06-17 03:50:00,66.9,66.9,17.72,South,189,4.0,4.0,100,0.24,,,0.75,VWS V13.01,2013-06-17 08:50:00,
2013-06-17 03:55:00,67.3,67.3,17.72,South,189,5.8,5.8,100,0.20,,,0.75,VWS V13.01,2013-06-17 08:55:00,
2013-06-17 04:00:00,68.0,68.0,17.72,South,188,7.6,7.6,100,0.20,,,0.75,VWS V13.01,2013-06-17 09:00:00,
2013-06-17 04:05:00,68.5,68.5,17.72,South,184,6.3,6.3,100,0.16,,,0.75,VWS V13.01,2013-06-17 09:05:00,
2013-06-17 04:06:00,68.5,68.5,17.72,South,183,7.2,7.2,100,0.16,,,0.75,VWS V13.01,2013-06-17 09:06:00,
2013-06-17 04:10:00,68.4,68.4,17.72,South,186,6.7,6.7,100,0.16,,,0.75,VWS V13.01,2013-06-17 09:10:00,
2013-06-17 04:11:00,68.4,68.4,17.72,South,186,5.8,5.8,100,0.16,,,0.75,VWS V13.01,2013-06-17 09:11:00,
2013-06-17 04:15:00,68.4,68.4,17.72,South,188,6.3,6.3,100,0.12,,,0.75,VWS V13.01,2013-06-17 09:15:00,
2013-06-17 04:16:00,68.4,68.4,17.72,South,189,8.1,8.1,100,0.12,,,0.75,VWS V13.01,2013-06-17 09:16:00,
2013-06-17 04:20:00,68.4,68.4,17.72,South,190,6.3,6.3,100,0.12,,,0.75,VWS V13.01,2013-06-17 09:20:00,
2013-06-17 04:21:00,68.5,68.5,17.72,South,184,8.1,8.1,100,0.12,,,0.75,VWS V13.01,2013-06-17 09:21:00,
2013-06-17 04:25:00,68.5,68.5,17.72,South,188,7.6,7.6,100,0.08,,,0.75,VWS V13.01,2013-06-17 09:25:00,
2013-06-17 04:26:00,68.5,68.5,17.72,South,185,10.5,10.5,100,0.08,,,0.75,VWS V13.01,2013-06-17 09:26:00,
2013-06-17 04:30:00,68.7,68.7,17.72,South,183,4.0,4.0,100,0.08,,,0.75,VWS V13.01,2013-06-17 09:30:00,
2013-06-17 04:31:00,68.5,68.5,17.72,South,185,3.6,3.6,100,0.08,,,0.75,VWS V13.01,2013-06-17 09:31:00,
2013-06-17 04:35:00,68.4,68.4,17.72,South,182,7.6,7.6,100,0.00,,,0.75,VWS V13.01,2013-06-17 09:35:00,
2013-06-17 04:36:00,68.4,68.4,17.72,South,181,7.6,7.6,100,0.00,,,0.75,VWS V13.01,2013-06-17 09:36:00,
2013-06-17 04:40:00,68.7,68.7,17.72,South,183,5.4,5.4,100,0.00,,,0.75,VWS V13.01,2013-06-17 09:40:00,
2013-06-17 04:41:00,68.7,68.7,17.72,South,170,7.6,7.6,100,0.00,,,0.75,VWS V13.01,2013-06-17 09:41:00,
2013-06-17 04:42:00,68.9,68.9,17.72,South,183,6.3,6.3,100,0.00,,,0.75,VWS V13.01,2013-06-17 09:42:00,
2013-06-17 04:45:00,69.1,69.1,17.72,South,185,8.3,8.3,100,0.00,,,0.75,VWS V13.01,2013-06-17 09:45:00,
2013-06-17 04:46:00,69.3,69.3,17.72,South,178,8.3,8.3,100,0.00,,,0.75,VWS V13.01,2013-06-17 09:46:00,
2013-06-17 04:47:00,69.1,69.1,17.72,South,187,6.3,6.3,100,0.00,,,0.75,VWS V13.01,2013-06-17 09:47:00,
2013-06-17 04:50:00,69.1,69.1,17.72,South,187,5.8,5.8,100,0.00,,,0.75,VWS V13.01,2013-06-17 09:50:00,
2013-06-17 04:51:00,69.1,69.1,17.72,South,187,5.4,5.4,100,0.00,,,0.75,VWS V13.01,2013-06-17 09:51:00,
2013-06-17 04:52:00,69.1,69.1,17.72,South,187,0.0,0.0,100,0.00,,,0.75,VWS V13.01,2013-06-17 09:52:00,
2013-06-17 04:55:00,68.5,68.5,17.72,South,187,0.0,0.0,100,0.00,,,0.75,VWS V13.01,2013-06-17 09:55:00,
2013-06-17 04:56:00,68.5,68.5,17.72,South,187,0.0,0.0,100,0.00,,,0.75,VWS V13.01,2013-06-17 09:56:00,
2013-06-17 04:57:00,68.5,68.5,17.72,South,187,0.0,0.0,100,0.00,,,0.75,VWS V13.01,2013-06-17 09:57:00,
2013-06-17 05:00:00,68.4,68.4,17.72,South,187,2.2,2.2,100,0.00,,,0.75,VWS V13.01,2013-06-17 10:00:00,
2013-06-17 05:01:00,68.4,68.4,17.72,South,187,0.0,0.0,100,0.00,,,0.75,VWS V13.01,2013-06-17 10:01:00,
2013-06-17 05:02:00,68.4,68.4,17.72,South,187,0.0,0.0,100,0.00,,,0.75,VWS V13.01,2013-06-17 10:02:00,
2013-06-17 05:05:00,68.2,68.2,17.72,South,187,0.0,0.0,100,0.00,,,0.75,VWS V13.01,2013-06-17 10:05:00,
2013-06-17 05:06:00,68.2,68.2,17.72,South,187,0.0,0.0,100,0.00,,,0.75,VWS V13.01,2013-06-17 10:06:00,
2013-06-17 05:07:00,68.2,68.2,17.72,South,187,0.0,0.0,100,0.00,,,0.75,VWS V13.01,2013-06-17 10:07:00,
2013-06-17 05:11:00,68.2,68.2,17.72,South,187,0.0,0.0,100,0.00,,,0.75,VWS V13.01,2013-06-17 10:11:00,
2013-06-17 05:12:00,68.4,68.4,17.72,South,187,3.1,3.1,100,0.00,,,0.75,VWS V13.01,2013-06-17 10:12:00,
2013-06-17 05:16:00,68.5,68.5,17.72,South,187,0.0,0.0,100,0.00,,,0.75,VWS V13.01,2013-06-17 10:16:00,
2013-06-17 05:17:00,68.5,68.5,17.72,WNW,283,3.1,3.1,100,0.00,,,0.75,VWS V13.01,2013-06-17 10:17:00,
2013-06-17 05:21:00,68.5,68.5,17.72,WNW,295,0.0,0.0,100,0.00,,,0.75,VWS V13.01,2013-06-17 10:21:00,
2013-06-17 05:22:00,68.5,68.5,17.72,WNW,285,2.7,2.7,100,0.00,,,0.75,VWS V13.01,2013-06-17 10:22:00,
2013-06-17 05:23:00,68.4,68.4,17.72,WNW,285,0.0,0.0,100,0.00,,,0.75,VWS V13.01,2013-06-17 10:23:00,
2013-06-17 05:26:00,68.4,68.4,17.72,WNW,293,0.0,0.0,100,0.00,,,0.75,VWS V13.01,2013-06-17 10:26:00,
2013-06-17 05:27:00,68.4,68.4,17.72,WNW,293,0.0,0.0,100,0.00,,,0.75,VWS V13.01,2013-06-17 10:27:00,
2013-06-17 05:28:00,68.4,68.4,17.72,West,271,0.0,0.0,100,0.00,,,0.75,VWS V13.01,2013-06-17 10:28:00,
2013-06-17 05:31:00,68.4,68.4,17.72,WSW,246,0.0,0.0,100,0.00,,,0.75,VWS V13.01,2013-06-17 10:31:00,
2013-06-17 05:32:00,68.4,68.4,17.72,WSW,246,0.0,0.0,100,0.00,,,0.75,VWS V13.01,2013-06-17 10:32:00,
2013-06-17 05:33:00,68.2,68.2,17.72,WSW,246,0.0,0.0,100,0.00,,,0.75,VWS V13.01,2013-06-17 10:33:00,
2013-06-17 05:36:00,68.2,68.2,17.72,NW,311,0.0,0.0,100,0.00,,,0.75,VWS V13.01,2013-06-17 10:36:00,
2013-06-17 05:37:00,68.2,68.2,17.72,NW,305,0.0,0.0,100,0.00,,,0.75,VWS V13.01,2013-06-17 10:37:00,
2013-06-17 05:38:00,68.2,68.2,17.72,NW,305,0.0,0.0,100,0.00,,,0.75,VWS V13.01,2013-06-17 10:38:00,
2013-06-17 05:41:00,68.0,68.0,17.72,WNW,294,0.0,0.0,100,0.00,,,0.75,VWS V13.01,2013-06-17 10:41:00,
2013-06-17 05:42:00,68.2,68.2,17.72,WNW,294,0.0,0.0,100,0.00,,,0.75,VWS V13.01,2013-06-17 10:42:00,
2013-06-17 05:43:00,68.2,68.2,17.72,WNW,295,0.0,0.0,100,0.00,,,0.75,VWS V13.01,2013-06-17 10:43:00,
2013-06-17 05:46:00,68.4,68.4,17.72,West,268,4.0,4.0,100,0.00,,,0.75,VWS V13.01,2013-06-17 10:46:00,
2013-06-17 05:47:00,68.4,68.4,17.72,WNW,288,3.6,3.6,100,0.00,,,0.75,VWS V13.01,2013-06-17 10:47:00,
2013-06-17 05:48:00,68.4,68.4,17.72,WSW,252,5.8,5.8,100,0.00,,,0.75,VWS V13.01,2013-06-17 10:48:00,
2013-06-17 05:51:00,68.4,68.4,17.72,West,276,2.2,2.2,100,0.00,,,0.75,VWS V13.01,2013-06-17 10:51:00,
2013-06-17 05:52:00,68.2,68.2,17.72,West,273,0.0,0.0,100,0.00,,,0.75,VWS V13.01,2013-06-17 10:52:00,
2013-06-17 05:53:00,68.2,68.2,17.72,WNW,285,0.0,0.0,100,0.00,,,0.75,VWS V13.01,2013-06-17 10:53:00,
2013-06-17 05:56:00,68.0,68.0,17.72,NW,315,0.0,0.0,100,0.00,,,0.75,VWS V13.01,2013-06-17 10:56:00,
2013-06-17 05:57:00,68.0,68.0,17.72,NW,315,0.0,0.0,100,0.00,,,0.75,VWS V13.01,2013-06-17 10:57:00,
2013-06-17 05:58:00,68.0,68.0,17.72,NW,315,0.0,0.0,100,0.00,,,0.75,VWS V13.01,2013-06-17 10:58:00,
2013-06-17 06:01:00,68.0,68.0,17.72,NW,305,0.0,0.0,100,0.00,,,0.75,VWS V13.01,2013-06-17 11:01:00,
2013-06-17 06:02:00,68.0,68.0,17.72,NW,305,0.0,0.0,100,0.00,,,0.75,VWS V13.01,2013-06-17 11:02:00,
2013-06-17 06:03:00,68.0,68.0,17.72,NNW,329,0.0,0.0,100,0.00,,,0.75,VWS V13.01,2013-06-17 11:03:00,
2013-06-17 06:06:00,68.0,68.0,17.72,East,91,0.0,0.0,100,0.00,,,0.75,VWS V13.01,2013-06-17 11:06:00,
2013-06-17 06:07:00,68.0,68.0,17.72,East,91,0.0,0.0,100,0.00,,,0.75,VWS V13.01,2013-06-17 11:07:00,
2013-06-17 06:08:00,68.0,68.0,17.72,East,91,0.0,0.0,100,0.00,,,0.75,VWS V13.01,2013-06-17 11:08:00,
2013-06-17 06:11:00,68.0,68.0,17.72,North,10,0.0,0.0,100,0.00,,,0.75,VWS V13.01,2013-06-17 11:11:00,
2013-06-17 06:12:00,68.0,68.0,17.72,NNE,25,0.0,0.0,100,0.00,,,0.75,VWS V13.01,2013-06-17 11:12:00,
2013-06-17 06:13:00,68.0,68.0,17.72,NNE,25,0.0,0.0,100,0.00,,,0.75,VWS V13.01,2013-06-17 11:13:00,
2013-06-17 06:16:00,68.0,68.0,17.72,East,87,0.0,0.0,100,0.00,,,0.75,VWS V13.01,2013-06-17 11:16:00,
2013-06-17 06:17:00,68.2,68.2,17.72,East,87,0.0,0.0,100,0.00,,,0.75,VWS V13.01,2013-06-17 11:17:00,
2013-06-17 06:18:00,68.2,68.2,17.72,East,81,0.0,0.0,100,0.00,,,0.75,VWS V13.01,2013-06-17 11:18:00,
2013-06-17 06:22:00,68.0,68.0,17.72,SSW,197,0.0,0.0,100,0.00,,,0.75,VWS V13.01,2013-06-17 11:22:00,
2013-06-17 06:23:00,68.0,68.0,17.72,SSW,197,0.0,0.0,100,0.00,,,0.75,VWS V13.01,2013-06-17 11:23:00,
2013-06-17 06:27:00,68.0,68.0,17.72,East,85,0.0,0.0,100,0.00,,,0.75,VWS V13.01,2013-06-17 11:27:00,
2013-06-17 06:28:00,68.0,68.0,17.72,East,87,0.0,0.0,100,0.00,,,0.75,VWS V13.01,2013-06-17 11:28:00,
2013-06-17 06:32:00,67.8,67.8,17.72,ESE,102,0.0,0.0,100,0.00,,,0.75,VWS V13.01,2013-06-17 11:32:00,
2013-06-17 06:33:00,67.8,67.8,17.72,ESE,102,0.0,0.0,100,0.00,,,0.75,VWS V13.01,2013-06-17 11:33:00,
2013-06-17 06:37:00,67.6,67.6,17.72,ESE,102,0.0,0.0,100,0.00,,,0.75,VWS V13.01,2013-06-17 11:37:00,
2013-06-17 06:38:00,67.6,67.6,17.72,ESE,102,0.0,0.0,100,0.00,,,0.75,VWS V13.01,2013-06-17 11:38:00,
2013-06-17 06:42:00,67.6,67.6,17.72,ESE,102,0.0,0.0,100,0.00,,,0.75,VWS V13.01,2013-06-17 11:42:00,
2013-06-17 06:43:00,67.6,67.6,17.72,West,278,0.0,0.0,100,0.00,,,0.75,VWS V13.01,2013-06-17 11:43:00,
2013-06-17 06:47:00,67.8,67.8,17.72,West,272,4.0,4.0,100,0.00,,,0.75,VWS V13.01,2013-06-17 11:47:00,
2013-06-17 06:48:00,67.6,67.6,17.72,West,270,0.0,0.0,100,0.00,,,0.75,VWS V13.01,2013-06-17 11:48:00,
2013-06-17 06:49:00,67.6,67.6,17.72,West,262,4.0,4.0,100,0.00,,,0.75,VWS V13.01,2013-06-17 11:49:00,
2013-06-17 06:52:00,67.6,67.6,17.72,WNW,287,3.6,3.6,100,0.00,,,0.75,VWS V13.01,2013-06-17 11:52:00,
2013-06-17 06:53:00,67.8,67.8,17.72,NNW,348,0.0,0.0,100,0.00,,,0.75,VWS V13.01,2013-06-17 11:53:00,
2013-06-17 06:54:00,67.6,67.6,17.72,NW,312,0.0,0.0,100,0.00,,,0.75,VWS V13.01,2013-06-17 11:54:00,
2013-06-17 06:57:00,67.8,67.8,17.72,WNW,297,0.0,0.0,100,0.00,,,0.75,VWS V13.01,2013-06-17 11:57:00,
2013-06-17 06:58:00,67.8,67.8,17.72,WNW,294,3.1,3.1,100,0.00,,,0.75,VWS V13.01,2013-06-17 11:58:00,
2013-06-17 06:59:00,67.6,67.6,17.72,WNW,294,0.0,0.0,100,0.00,,,0.75,VWS V13.01,2013-06-17 11:59:00,
2013-06-17 07:02:00,67.8,67.8,17.72,NW,317,3.6,3.6,100,0.00,,,0.75,VWS V13.01,2013-06-17 12:02:00,
2013-06-17 07:03:00,67.8,67.8,17.72,North,357,2.7,2.7,100,0.00,,,0.75,VWS V13.01,2013-06-17 12:03:00,
2013-06-17 07:04:00,67.8,67.8,17.72,North,353,0.0,0.0,100,0.00,,,0.75,VWS V13.01,2013-06-17 12:04:00,
2013-06-17 07:07:00,68.0,68.0,17.72,NE,52,0.0,0.0,100,0.00,,,0.75,VWS V13.01,2013-06-17 12:07:00,
2013-06-17 07:08:00,68.0,68.0,17.72,NNE,27,3.1,3.1,100,0.00,,,0.75,VWS V13.01,2013-06-17 12:08:00,
2013-06-17 07:09:00,68.0,68.0,17.72,NE,45,4.0,4.0,100,0.00,,,0.75,VWS V13.01,2013-06-17 12:09:00,
2013-06-17 07:12:00,68.0,68.0,17.72,NE,51,4.5,4.5,100,0.00,,,0.75,VWS V13.01,2013-06-17 12:12:00,
2013-06-17 07:13:00,68.0,68.0,17.72,ENE,73,3.1,3.1,100,0.00,,,0.75,VWS V13.01,2013-06-17 12:13:00,
2013-06-17 07:14:00,68.2,68.2,17.72,NE,54,7.6,7.6,100,0.00,,,0.75,VWS V13.01,2013-06-17 12:14:00,
2013-06-17 07:17:00,68.2,68.2,17.72,ENE,65,6.3,6.3,100,0.00,,,0.75,VWS V13.01,2013-06-17 12:17:00,
2013-06-17 07:18:00,68.2,68.2,17.72,NE,40,4.0,4.0,100,0.00,,,0.75,VWS V13.01,2013-06-17 12:18:00,
2013-06-17 07:19:00,68.2,68.2,17.72,ENE,63,3.1,3.1,100,0.00,,,0.75,VWS V13.01,2013-06-17 12:19:00,
2013-06-17 07:22:00,68.2,68.2,17.72,NE,48,2.7,2.7,100,0.00,,,0.75,VWS V13.01,2013-06-17 12:22:00,
2013-06-17 07:23:00,68.2,68.2,17.72,NE,53,2.7,2.7,100,0.00,,,0.75,VWS V13.01,2013-06-17 12:23:00,
2013-06-17 07:24:00,68.2,68.2,17.72,ENE,65,4.0,4.0,100,0.00,,,0.75,VWS V13.01,2013-06-17 12:24:00,
2013-06-17 07:27:00,68.2,68.2,17.72,ENE,65,0.0,0.0,100,0.00,,,0.75,VWS V13.01,2013-06-17 12:27:00,
2013-06-17 07:28:00,68.2,68.2,17.72,NE,38,4.9,4.9,100,0.00,,,0.75,VWS V13.01,2013-06-17 12:28:00,
2013-06-17 07:29:00,68.2,68.2,17.72,NE,56,5.4,5.4,100,0.00,,,0.75,VWS V13.01,2013-06-17 12:29:00,
2013-06-17 07:32:00,68.2,68.2,17.72,ENE,63,2.2,2.2,100,0.00,,,0.75,VWS V13.01,2013-06-17 12:32:00,
2013-06-17 07:33:00,68.2,68.2,17.72,ENE,63,2.2,2.2,100,0.00,,,0.75,VWS V13.01,2013-06-17 12:33:00,
2013-06-17 07:34:00,68.2,68.2,17.72,ENE,63,0.0,0.0,100,0.00,,,0.75,VWS V13.01,2013-06-17 12:34:00,
2013-06-17 07:37:00,68.2,68.2,17.72,ENE,71,0.0,0.0,100,0.00,,,0.75,VWS V13.01,2013-06-17 12:37:00,
2013-06-17 07:38:00,68.2,68.2,17.72,ENE,67,0.0,0.0,100,0.00,,,0.75,VWS V13.01,2013-06-17 12:38:00,
2013-06-17 07:39:00,68.2,68.2,17.72,East,88,3.6,3.6,100,0.00,,,0.75,VWS V13.01,2013-06-17 12:39:00,
2013-06-17 07:42:00,68.2,68.2,17.72,East,90,0.0,0.0,100,0.00,,,0.75,VWS V13.01,2013-06-17 12:42:00,
2013-06-17 07:43:00,68.2,68.2,17.72,NNE,33,0.0,0.0,100,0.00,,,0.75,VWS V13.01,2013-06-17 12:43:00,
2013-06-17 07:44:00,68.2,68.2,17.72,ENE,74,0.0,0.0,100,0.00,,,0.75,VWS V13.01,2013-06-17 12:44:00,
2013-06-17 07:45:00,68.2,68.2,17.72,SSW,210,0.0,0.0,100,0.00,,,0.75,VWS V13.01,2013-06-17 12:45:00,
2013-06-17 07:47:00,68.4,68.4,17.72,South,180,0.0,0.0,100,0.00,,,0.75,VWS V13.01,2013-06-17 12:47:00,
2013-06-17 07:48:00,68.4,68.4,17.72,SSW,193,0.0,0.0,100,0.00,,,0.75,VWS V13.01,2013-06-17 12:48:00,
2013-06-17 07:49:00,68.4,68.4,17.72,ESE,104,4.0,4.0,100,0.00,,,0.75,VWS V13.01,2013-06-17 12:49:00,
2013-06-17 07:50:00,68.4,68.4,17.72,South,177,3.6,3.6,100,0.00,,,0.75,VWS V13.01,2013-06-17 12:50:00,
2013-06-17 07:52:00,68.5,68.5,17.72,SSW,202,3.1,3.1,100,0.00,,,0.75,VWS V13.01,2013-06-17 12:52:00,
2013-06-17 07:53:00,68.5,68.5,17.72,SSW,200,0.0,0.0,100,0.00,,,0.75,VWS V13.01,2013-06-17 12:53:00,
2013-06-17 07:54:00,68.5,68.5,17.72,SSW,200,0.0,0.0,100,0.00,,,0.75,VWS V13.01,2013-06-17 12:54:00,
2013-06-17 07:55:00,68.5,68.5,17.72,South,179,0.0,0.0,100,0.00,,,0.75,VWS V13.01,2013-06-17 12:55:00,
2013-06-17 07:57:00,68.7,68.7,17.72,SSE,166,4.9,4.9,100,0.00,,,0.75,VWS V13.01,2013-06-17 12:57:00,
2013-06-17 07:58:00,68.7,68.7,17.72,South,187,0.0,0.0,100,0.00,,,0.75,VWS V13.01,2013-06-17 12:58:00,
2013-06-17 07:59:00,68.7,68.7,17.72,ENE,77,0.0,0.0,100,0.00,,,0.75,VWS V13.01,2013-06-17 12:59:00,
2013-06-17 08:00:00,68.7,68.7,17.72,ESE,116,0.0,0.0,100,0.00,,,0.75,VWS V13.01,2013-06-17 13:00:00,
2013-06-17 08:02:00,68.7,68.7,17.72,ENE,71,0.0,0.0,100,0.00,,,0.75,VWS V13.01,2013-06-17 13:02:00,
2013-06-17 08:03:00,68.7,68.7,17.72,South,177,0.0,0.0,100,0.00,,,0.75,VWS V13.01,2013-06-17 13:03:00,
2013-06-17 08:04:00,68.7,68.7,17.72,South,181,3.1,3.1,100,0.00,,,0.75,VWS V13.01,2013-06-17 13:04:00,
2013-06-17 08:05:00,68.7,68.7,17.72,South,183,4.9,4.9,100,0.00,,,0.75,VWS V13.01,2013-06-17 13:05:00,
2013-06-17 08:07:00,68.7,68.7,17.72,South,172,2.2,2.2,100,0.00,,,0.75,VWS V13.01,2013-06-17 13:07:00,
2013-06-17 08:08:00,68.7,68.7,17.72,South,181,4.5,4.5,100,0.00,,,0.75,VWS V13.01,2013-06-17 13:08:00,
2013-06-17 08:09:00,68.7,68.7,17.72,South,184,6.3,6.3,100,0.00,,,0.75,VWS V13.01,2013-06-17 13:09:00,
2013-06-17 08:11:00,68.7,68.7,17.72,South,182,3.1,3.1,100,0.00,,,0.75,VWS V13.01,2013-06-17 13:11:00,
2013-06-17 08:12:00,68.7,68.7,17.72,South,183,3.1,3.1,100,0.00,,,0.75,VWS V13.01,2013-06-17 13:12:00,
2013-06-17 08:13:00,68.7,68.7,17.72,South,178,3.1,3.1,100,0.00,,,0.75,VWS V13.01,2013-06-17 13:13:00,
2013-06-17 08:14:00,68.7,68.7,17.72,South,184,2.7,2.7,100,0.00,,,0.75,VWS V13.01,2013-06-17 13:14:00,
2013-06-17 08:16:00,68.5,68.5,17.72,South,184,2.7,2.7,100,0.00,,,0.75,VWS V13.01,2013-06-17 13:16:00,
2013-06-17 08:17:00,68.7,68.7,17.72,South,191,2.7,2.7,100,0.00,,,0.75,VWS V13.01,2013-06-17 13:17:00,
2013-06-17 08:18:00,68.7,68.7,17.72,South,191,0.0,0.0,100,0.00,,,0.75,VWS V13.01,2013-06-17 13:18:00,
2013-06-17 08:19:00,68.7,68.7,17.72,South,191,0.0,0.0,100,0.00,,,0.75,VWS V13.01,2013-06-17 13:19:00,
2013-06-17 08:21:00,68.9,68.9,17.72,ENE,58,0.0,0.0,100,0.00,,,0.75,VWS V13.01,2013-06-17 13:21:00,
2013-06-17 08:22:00,68.7,68.7,17.72,East,87,2.2,2.2,100,0.00,,,0.75,VWS V13.01,2013-06-17 13:22:00,
2013-06-17 08:23:00,68.9,68.9,17.72,East,87,0.0,0.0,100,0.00,,,0.75,VWS V13.01,2013-06-17 13:23:00,
2013-06-17 08:24:00,68.7,68.7,17.72,East,81,0.0,0.0,100,0.00,,,0.75,VWS V13.01,2013-06-17 13:24:00,
2013-06-17 08:26:00,68.7,68.7,17.72,ENE,68,0.0,0.0,100,0.00,,,0.75,VWS V13.01,2013-06-17 13:26:00,
2013-06-17 08:28:00,68.7,68.7,17.72,East,85,0.0,0.0,100,0.00,,,0.75,VWS V13.01,2013-06-17 13:28:00,
2013-06-17 08:29:00,68.7,68.7,17.72,East,85,0.0,0.0,100,0.00,,,0.75,VWS V13.01,2013-06-17 13:29:00,
2013-06-17 08:31:00,68.7,68.7,17.72,ENE,78,0.0,0.0,100,0.00,,,0.75,VWS V13.01,2013-06-17 13:31:00,
2013-06-17 08:33:00,68.7,68.7,17.72,ENE,78,0.0,0.0,100,0.00,,,0.75,VWS V13.01,2013-06-17 13:33:00,
2013-06-17 08:35:00,68.7,68.7,17.72,SSW,192,0.0,0.0,100,0.00,,,0.75,VWS V13.01,2013-06-17 13:35:00,
2013-06-17 08:36:00,68.7,68.7,17.72,South,190,0.0,0.0,100,0.00,,,0.75,VWS V13.01,2013-06-17 13:36:00,
2013-06-17 08:38:00,68.7,68.7,17.72,South,190,0.0,0.0,100,0.00,,,0.75,VWS V13.01,2013-06-17 13:38:00,
2013-06-17 08:40:00,68.9,68.9,17.72,South,173,0.0,0.0,100,0.00,,,0.75,VWS V13.01,2013-06-17 13:40:00,
2013-06-17 08:41:00,68.9,68.9,17.72,South,189,0.0,0.0,100,0.00,,,0.75,VWS V13.01,2013-06-17 13:41:00,
2013-06-17 08:43:00,68.9,68.9,17.72,SE,141,0.0,0.0,100,0.00,,,0.75,VWS V13.01,2013-06-17 13:43:00,
2013-06-17 08:44:00,69.1,69.1,17.72,South,184,0.0,0.0,100,0.00,,,0.75,VWS V13.01,2013-06-17 13:44:00,
2013-06-17 08:45:00,68.9,68.9,17.72,ENE,68,0.0,0.0,100,0.00,,,0.75,VWS V13.01,2013-06-17 13:45:00,
2013-06-17 08:46:00,69.1,69.1,17.72,SSW,192,0.0,0.0,100,0.00,,,0.75,VWS V13.01,2013-06-17 13:46:00,
2013-06-17 08:48:00,69.1,69.1,17.72,ENE,78,0.0,0.0,100,0.00,,,0.75,VWS V13.01,2013-06-17 13:48:00,
2013-06-17 08:49:00,69.1,69.1,17.72,ENE,78,0.0,0.0,100,0.00,,,0.75,VWS V13.01,2013-06-17 13:49:00,
2013-06-17 08:50:00,69.1,69.1,17.72,East,94,0.0,0.0,100,0.00,,,0.75,VWS V13.01,2013-06-17 13:50:00,
2013-06-17 08:51:00,69.1,69.1,17.72,SSE,157,0.0,0.0,100,0.00,,,0.75,VWS V13.01,2013-06-17 13:51:00,
2013-06-17 08:53:00,69.3,69.3,17.72,East,94,0.0,0.0,100,0.00,,,0.75,VWS V13.01,2013-06-17 13:53:00,
2013-06-17 08:54:00,69.3,69.3,17.72,East,94,0.0,0.0,100,0.00,,,0.75,VWS V13.01,2013-06-17 13:54:00,
2013-06-17 08:55:00,69.3,69.3,17.72,ENE,74,0.0,0.0,100,0.00,,,0.75,VWS V13.01,2013-06-17 13:55:00,
2013-06-17 08:56:00,69.3,69.3,17.72,East,84,0.0,0.0,100,0.00,,,0.75,VWS V13.01,2013-06-17 13:56:00,
2013-06-17 08:58:00,69.4,69.4,17.72,ENE,75,0.0,0.0,100,0.00,,,0.75,VWS V13.01,2013-06-17 13:58:00,
2013-06-17 08:59:00,69.4,69.4,17.72,East,98,0.0,0.0,100,0.00,,,0.75,VWS V13.01,2013-06-17 13:59:00,
2013-06-17 09:00:00,69.4,69.4,17.72,East,89,0.0,0.0,100,0.00,,,0.75,VWS V13.01,2013-06-17 14:00:00,
2013-06-17 09:01:00,69.6,69.6,17.72,East,89,0.0,0.0,100,0.00,,,0.75,VWS V13.01,2013-06-17 14:01:00,
2013-06-17 09:03:00,69.8,69.8,17.72,East,90,0.0,0.0,100,0.00,,,0.75,VWS V13.01,2013-06-17 14:03:00,
2013-06-17 09:04:00,69.8,69.8,17.72,East,90,0.0,0.0,100,0.00,,,0.75,VWS V13.01,2013-06-17 14:04:00,
2013-06-17 09:05:00,69.8,69.8,17.72,East,79,0.0,0.0,100,0.00,,,0.75,VWS V13.01,2013-06-17 14:05:00,
2013-06-17 09:06:00,69.8,69.8,17.72,East,96,0.0,0.0,100,0.00,,,0.75,VWS V13.01,2013-06-17 14:06:00,
2013-06-17 09:08:00,70.0,70.0,17.72,ENE,76,0.0,0.0,100,0.00,,,0.75,VWS V13.01,2013-06-17 14:08:00,
2013-06-17 09:09:00,70.0,70.0,17.72,SE,131,0.0,0.0,100,0.00,,,0.75,VWS V13.01,2013-06-17 14:09:00,
2013-06-17 09:10:00,70.2,70.2,17.72,East,88,0.0,0.0,100,0.00,,,0.75,VWS V13.01,2013-06-17 14:10:00,
2013-06-17 09:11:00,70.2,70.2,17.72,East,84,0.0,0.0,100,0.00,,,0.75,VWS V13.01,2013-06-17 14:11:00,
2013-06-17 09:13:00,70.3,70.3,17.72,East,81,0.0,0.0,100,0.00,,,0.75,VWS V13.01,2013-06-17 14:13:00,
2013-06-17 09:14:00,70.3,70.3,17.72,East,95,0.0,0.0,100,0.00,,,0.75,VWS V13.01,2013-06-17 14:14:00,
2013-06-17 09:15:00,70.5,70.5,17.72,East,95,0.0,0.0,100,0.00,,,0.75,VWS V13.01,2013-06-17 14:15:00,
2013-06-17 09:16:00,70.7,70.7,17.72,East,95,0.0,0.0,100,0.00,,,0.75,VWS V13.01,2013-06-17 14:16:00,
2013-06-17 09:18:00,70.9,70.9,17.72,East,95,0.0,0.0,100,0.00,,,0.75,VWS V13.01,2013-06-17 14:18:00,
2013-06-17 09:19:00,70.7,70.7,17.72,SSW,205,0.0,0.0,100,0.00,,,0.75,VWS V13.01,2013-06-17 14:19:00,
2013-06-17 09:20:00,70.9,70.9,17.72,SSW,205,0.0,0.0,100,0.00,,,0.75,VWS V13.01,2013-06-17 14:20:00,
2013-06-17 09:21:00,71.1,71.1,17.72,SSW,205,0.0,0.0,100,0.00,,,0.75,VWS V13.01,2013-06-17 14:21:00,
2013-06-17 09:24:00,71.4,71.4,17.72,SSW,205,0.0,0.0,100,0.00,,,0.75,VWS V13.01,2013-06-17 14:24:00,
2013-06-17 09:25:00,71.4,71.4,17.72,SSW,205,0.0,0.0,100,0.00,,,0.75,VWS V13.01,2013-06-17 14:25:00,
2013-06-17 09:27:00,71.4,71.4,17.72,ENE,68,0.0,0.0,100,0.00,,,0.75,VWS V13.01,2013-06-17 14:27:00,
2013-06-17 09:29:00,71.4,71.4,17.72,SE,137,0.0,0.0,100,0.00,,,0.75,VWS V13.01,2013-06-17 14:29:00,
2013-06-17 09:30:00,71.8,71.8,17.72,SE,137,0.0,0.0,100,0.00,,,0.75,VWS V13.01,2013-06-17 14:30:00,
2013-06-17 09:31:00,71.8,71.8,17.72,SE,137,0.0,0.0,100,0.00,,,0.75,VWS V13.01,2013-06-17 14:31:00,
2013-06-17 09:33:00,71.8,71.8,17.72,SW,214,0.0,0.0,100,0.00,,,0.75,VWS V13.01,2013-06-17 14:33:00,
2013-06-17 09:34:00,71.8,71.8,17.72,SSW,195,0.0,0.0,100,0.00,,,0.75,VWS V13.01,2013-06-17 14:34:00,
2013-06-17 09:35:00,72.0,72.0,17.72,SSW,195,0.0,0.0,100,0.00,,,0.75,VWS V13.01,2013-06-17 14:35:00,
2013-06-17 09:36:00,72.0,72.0,17.72,SSW,195,0.0,0.0,100,0.00,,,0.75,VWS V13.01,2013-06-17 14:36:00,
2013-06-17 09:37:00,72.1,72.2,17.72,South,186,0.0,0.0,100,0.00,,,0.75,VWS V13.01,2013-06-17 14:37:00,
2013-06-17 09:38:00,72.1,72.2,17.72,South,171,0.0,0.0,100,0.00,,,0.75,VWS V13.01,2013-06-17 14:38:00,
2013-06-17 09:39:00,72.1,72.2,17.72,South,171,0.0,0.0,100,0.00,,,0.75,VWS V13.01,2013-06-17 14:39:00,
2013-06-17 09:41:00,72.1,72.2,17.72,South,183,0.0,0.0,100,0.00,,,0.75,VWS V13.01,2013-06-17 14:41:00,
2013-06-17 09:42:00,72.0,72.0,17.72,South,181,4.0,4.0,100,0.00,,,0.75,VWS V13.01,2013-06-17 14:42:00,
2013-06-17 09:43:00,71.6,71.6,17.72,South,179,4.0,4.0,100,0.00,,,0.75,VWS V13.01,2013-06-17 14:43:00,
2013-06-17 09:44:00,71.8,71.8,17.72,South,187,3.6,3.6,100,0.00,,,0.75,VWS V13.01,2013-06-17 14:44:00,
2013-06-17 09:45:00,71.8,71.8,17.72,South,187,2.2,2.2,100,0.00,,,0.75,VWS V13.01,2013-06-17 14:45:00,
2013-06-17 09:46:00,72.0,72.0,17.72,South,187,0.0,0.0,100,0.00,,,0.75,VWS V13.01,2013-06-17 14:46:00,
2013-06-17 09:47:00,71.6,71.6,17.72,South,188,0.0,0.0,100,0.00,,,0.75,VWS V13.01,2013-06-17 14:47:00,
2013-06-17 09:49:00,71.8,71.8,17.72,South,185,3.6,3.6,100,0.00,,,0.75,VWS V13.01,2013-06-17 14:49:00,
2013-06-17 09:50:00,71.6,71.6,17.72,South,188,3.6,3.6,100,0.00,,,0.75,VWS V13.01,2013-06-17 14:50:00,
2013-06-17 09:51:00,71.6,71.6,17.72,South,178,4.9,4.9,100,0.00,,,0.75,VWS V13.01,2013-06-17 14:51:00,
2013-06-17 09:52:00,71.4,71.4,17.72,South,181,4.0,4.0,100,0.00,,,0.75,VWS V13.01,2013-06-17 14:52:00,
2013-06-17 09:54:00,71.4,71.4,17.72,South,186,3.1,3.1,100,0.00,,,0.75,VWS V13.01,2013-06-17 14:54:00,
2013-06-17 09:55:00,71.4,71.4,17.72,South,186,5.8,5.8,100,0.00,,,0.75,VWS V13.01,2013-06-17 14:55:00,
2013-06-17 09:56:00,71.4,71.4,17.72,South,188,5.4,5.4,100,0.00,,,0.75,VWS V13.01,2013-06-17 14:56:00,
2013-06-17 09:57:00,71.4,71.4,17.72,South,182,4.9,4.9,100,0.00,,,0.75,VWS V13.01,2013-06-17 14:57:00,
2013-06-17 09:58:00,71.4,71.4,17.72,South,181,4.0,4.0,100,0.00,,,0.75,VWS V13.01,2013-06-17 14:58:00,
2013-06-17 10:00:00,71.4,71.4,17.72,South,180,3.6,3.6,100,0.00,,,0.75,VWS V13.01,2013-06-17 15:00:00,
2013-06-17 10:01:00,71.8,71.8,17.72,South,184,3.1,3.1,100,0.00,,,0.75,VWS V13.01,2013-06-17 15:01:00,
2013-06-17 10:02:00,71.6,71.6,17.72,South,185,4.0,4.0,100,0.00,,,0.75,VWS V13.01,2013-06-17 15:02:00,
2013-06-17 10:04:00,71.8,71.8,17.72,South,187,3.6,3.6,100,0.00,,,0.75,VWS V13.01,2013-06-17 15:04:00,
2013-06-17 10:05:00,71.8,71.8,17.72,South,187,3.6,3.6,100,0.00,,,0.75,VWS V13.01,2013-06-17 15:05:00,
2013-06-17 10:06:00,72.0,72.0,17.72,South,186,2.7,2.7,100,0.00,,,0.75,VWS V13.01,2013-06-17 15:06:00,
2013-06-17 10:07:00,72.0,72.0,17.72,South,185,3.1,3.1,100,0.00,,,0.75,VWS V13.01,2013-06-17 15:07:00,
2013-06-17 10:09:00,72.0,72.0,17.72,South,179,4.9,4.9,100,0.00,,,0.75,VWS V13.01,2013-06-17 15:09:00,
2013-06-17 10:10:00,72.1,72.2,17.72,South,184,3.6,3.6,100,0.00,,,0.75,VWS V13.01,2013-06-17 15:10:00,
2013-06-17 10:11:00,72.0,72.0,17.72,South,187,4.0,4.0,100,0.00,,,0.75,VWS V13.01,2013-06-17 15:11:00,
2013-06-17 10:12:00,72.0,72.0,17.72,South,187,4.5,4.5,100,0.00,,,0.75,VWS V13.01,2013-06-17 15:12:00,
2013-06-17 10:14:00,72.1,72.2,17.72,South,178,3.6,3.6,100,0.00,,,0.75,VWS V13.01,2013-06-17 15:14:00,
2013-06-17 10:15:00,72.1,69.4,17.72,South,179,3.1,3.1,91,0.00,,,0.75,VWS V13.01,2013-06-17 15:15:00,
2013-06-17 10:16:00,71.8,69.0,17.72,South,181,5.8,5.8,91,0.00,,,0.75,VWS V13.01,2013-06-17 15:16:00,
2013-06-17 10:17:00,71.8,69.0,17.72,South,185,5.4,5.4,91,0.00,,,0.75,VWS V13.01,2013-06-17 15:17:00,
2013-06-17 10:19:00,71.8,71.8,17.72,South,186,4.0,4.0,100,0.00,,,0.75,VWS V13.01,2013-06-17 15:19:00,
2013-06-17 10:20:00,71.6,68.8,17.72,South,189,3.6,3.6,91,0.00,,,0.75,VWS V13.01,2013-06-17 15:20:00,
2013-06-17 10:21:00,72.0,72.0,17.72,South,188,3.1,3.1,100,0.00,,,0.75,VWS V13.01,2013-06-17 15:21:00,
2013-06-17 10:22:00,72.1,72.2,17.72,South,188,0.0,0.0,100,0.00,,,0.75,VWS V13.01,2013-06-17 15:22:00,
2013-06-17 10:24:00,72.3,72.3,17.72,South,188,3.1,3.1,100,0.00,,,0.75,VWS V13.01,2013-06-17 15:24:00,
2013-06-17 10:25:00,72.1,69.4,17.72,South,188,3.6,3.6,91,0.00,,,0.75,VWS V13.01,2013-06-17 15:25:00,
2013-06-17 10:26:00,72.1,69.4,17.72,South,188,3.6,3.6,91,0.00,,,0.75,VWS V13.01,2013-06-17 15:26:00,
2013-06-17 10:27:00,72.1,69.4,17.72,South,188,4.0,4.0,91,0.00,,,0.75,VWS V13.01,2013-06-17 15:27:00,
2013-06-17 10:29:00,72.0,69.2,17.72,South,187,4.0,4.0,91,0.00,,,0.75,VWS V13.01,2013-06-17 15:29:00,
2013-06-17 10:30:00,72.1,72.2,17.72,South,187,3.1,3.1,100,0.00,,,0.75,VWS V13.01,2013-06-17 15:30:00,
2013-06-17 10:31:00,72.1,69.4,17.72,South,187,4.0,4.0,91,0.00,,,0.75,VWS V13.01,2013-06-17 15:31:00,
2013-06-17 10:32:00,72.0,69.2,17.72,South,181,6.3,6.3,91,0.00,,,0.75,VWS V13.01,2013-06-17 15:32:00,
2013-06-17 10:34:00,72.0,72.0,17.72,South,185,4.9,4.9,100,0.00,,,0.75,VWS V13.01,2013-06-17 15:34:00,
2013-06-17 10:35:00,72.0,69.2,17.72,South,185,5.4,5.4,91,0.00,,,0.75,VWS V13.01,2013-06-17 15:35:00,
2013-06-17 10:36:00,71.8,69.0,17.72,South,178,5.8,5.8,91,0.00,,,0.75,VWS V13.01,2013-06-17 15:36:00,
2013-06-17 10:37:00,71.8,69.0,17.72,South,184,5.8,5.8,91,0.00,,,0.75,VWS V13.01,2013-06-17 15:37:00,
2013-06-17 10:39:00,72.0,72.0,17.72,South,185,3.6,3.6,100,0.00,,,0.75,VWS V13.01,2013-06-17 15:39:00,
2013-06-17 10:40:00,72.1,72.2,17.72,South,188,3.1,3.1,100,0.00,,,0.75,VWS V13.01,2013-06-17 15:40:00,
2013-06-17 10:41:00,72.3,72.3,17.72,SSW,193,3.1,3.1,100,0.00,,,0.75,VWS V13.01,2013-06-17 15:41:00,
2013-06-17 10:42:00,72.5,72.5,17.72,South,182,3.6,3.6,100,0.00,,,0.75,VWS V13.01,2013-06-17 15:42:00,
2013-06-17 10:44:00,72.3,69.6,17.72,South,184,3.1,3.1,91,0.00,,,0.75,VWS V13.01,2013-06-17 15:44:00,
2013-06-17 10:45:00,72.3,69.6,17.72,South,187,4.9,4.9,91,0.00,,,0.75,VWS V13.01,2013-06-17 15:45:00,
2013-06-17 10:46:00,72.5,69.7,17.72,South,186,3.6,3.6,91,0.00,,,0.75,VWS V13.01,2013-06-17 15:46:00,
2013-06-17 10:47:00,72.5,69.7,17.72,South,185,4.0,4.0,91,0.00,,,0.75,VWS V13.01,2013-06-17 15:47:00,
2013-06-17 10:49:00,72.3,69.6,17.72,South,187,4.0,4.0,91,0.00,,,0.75,VWS V13.01,2013-06-17 15:49:00,
2013-06-17 10:50:00,72.3,69.6,17.72,South,188,5.8,5.8,91,0.00,,,0.75,VWS V13.01,2013-06-17 15:50:00,
2013-06-17 10:51:00,72.1,69.4,17.72,South,189,5.4,5.4,91,0.00,,,0.75,VWS V13.01,2013-06-17 15:51:00,
2013-06-17 10:52:00,72.3,69.6,17.72,South,188,6.3,6.3,91,0.00,,,0.75,VWS V13.01,2013-06-17 15:52:00,
2013-06-17 10:54:00,72.3,69.6,17.72,South,186,6.3,6.3,91,0.00,,,0.75,VWS V13.01,2013-06-17 15:54:00,
2013-06-17 10:55:00,72.3,69.6,17.72,South,185,4.0,4.0,91,0.00,,,0.75,VWS V13.01,2013-06-17 15:55:00,
2013-06-17 10:56:00,72.3,69.6,17.72,South,185,4.0,4.0,91,0.00,,,0.75,VWS V13.01,2013-06-17 15:56:00,
2013-06-17 10:57:00,72.5,69.7,17.72,South,185,3.1,3.1,91,0.00,,,0.75,VWS V13.01,2013-06-17 15:57:00,
2013-06-17 10:59:00,72.3,63.2,17.72,South,183,6.3,6.3,73,0.00,,,0.75,VWS V13.01,2013-06-17 15:59:00,
2013-06-17 11:00:00,72.5,63.4,17.72,South,189,5.4,5.4,73,0.00,,,0.75,VWS V13.01,2013-06-17 16:00:00,
2013-06-17 11:01:00,72.7,69.9,17.72,South,187,3.6,3.6,91,0.00,,,0.75,VWS V13.01,2013-06-17 16:01:00,
2013-06-17 11:02:00,72.5,69.7,17.72,South,187,5.4,5.4,91,0.00,,,0.75,VWS V13.01,2013-06-17 16:02:00,
2013-06-17 11:04:00,72.3,63.2,17.72,South,186,5.8,5.8,73,0.00,,,0.75,VWS V13.01,2013-06-17 16:04:00,
2013-06-17 11:05:00,72.5,69.7,17.72,South,184,4.5,4.5,91,0.00,,,0.75,VWS V13.01,2013-06-17 16:05:00,
2013-06-17 11:06:00,72.5,69.7,17.72,South,180,4.9,4.9,91,0.00,,,0.75,VWS V13.01,2013-06-17 16:06:00,
2013-06-17 11:08:00,72.7,72.7,17.72,South,181,2.7,2.7,100,0.00,,,0.75,VWS V13.01,2013-06-17 16:08:00,
2013-06-17 11:09:00,72.7,69.9,17.72,South,183,3.1,3.1,91,0.00,,,0.75,VWS V13.01,2013-06-17 16:09:00,
2013-06-17 11:10:00,72.7,69.9,17.72,South,181,4.0,4.0,91,0.00,,,0.75,VWS V13.01,2013-06-17 16:10:00,
2013-06-17 11:11:00,72.7,69.9,17.72,South,181,0.0,0.0,91,0.00,,,0.75,VWS V13.01,2013-06-17 16:11:00,
2013-06-17 11:13:00,72.9,70.1,17.72,South,181,0.0,0.0,91,0.00,,,0.75,VWS V13.01,2013-06-17 16:13:00,
2013-06-17 11:14:00,73.2,70.4,17.72,South,181,0.0,0.0,91,0.00,,,0.75,VWS V13.01,2013-06-17 16:14:00,
2013-06-17 11:15:00,73.0,70.3,17.72,South,182,2.7,2.7,91,0.00,,,0.75,VWS V13.01,2013-06-17 16:15:00,
2013-06-17 11:16:00,73.0,63.9,17.72,South,184,3.6,3.6,73,0.00,,,0.75,VWS V13.01,2013-06-17 16:16:00,
2013-06-17 11:17:00,73.0,63.9,17.72,South,184,3.6,3.6,73,0.00,,,0.75,VWS V13.01,2013-06-17 16:17:00,
2013-06-17 11:18:00,73.2,70.4,17.72,South,181,3.6,3.6,91,0.00,,,0.75,VWS V13.01,2013-06-17 16:18:00,
2013-06-17 11:19:00,73.2,70.4,17.72,South,182,2.2,2.2,91,0.00,,,0.75,VWS V13.01,2013-06-17 16:19:00,
2013-06-17 11:20:00,73.6,68.8,17.72,South,182,3.1,3.1,85,0.00,,,0.75,VWS V13.01,2013-06-17 16:20:00,
2013-06-17 11:21:00,73.6,68.8,17.72,South,187,5.4,5.4,85,0.00,,,0.75,VWS V13.01,2013-06-17 16:21:00,
2013-06-17 11:22:00,73.6,68.8,17.72,South,180,5.8,5.8,85,0.00,,,0.75,VWS V13.01,2013-06-17 16:22:00,
2013-06-17 11:23:00,73.6,68.8,17.72,South,181,4.0,4.0,85,0.00,,,0.75,VWS V13.01,2013-06-17 16:23:00,
2013-06-17 11:24:00,73.4,64.2,17.72,South,185,6.3,6.3,73,0.00,,,0.75,VWS V13.01,2013-06-17 16:24:00,
2013-06-17 11:25:00,73.2,64.1,17.72,South,186,4.0,4.0,73,0.00,,,0.75,VWS V13.01,2013-06-17 16:25:00,
2013-06-17 11:27:00,73.4,64.2,17.72,South,186,5.8,5.8,73,0.00,,,0.75,VWS V13.01,2013-06-17 16:27:00,
2013-06-17 11:28:00,73.4,64.2,17.72,South,177,5.8,5.8,73,0.00,,,0.75,VWS V13.01,2013-06-17 16:28:00,
2013-06-17 11:29:00,73.6,64.4,17.72,South,181,5.8,5.8,73,0.00,,,0.75,VWS V13.01,2013-06-17 16:29:00,
2013-06-17 11:30:00,73.8,64.6,17.72,South,186,5.8,5.8,73,0.00,,,0.75,VWS V13.01,2013-06-17 16:30:00,
2013-06-17 11:32:00,73.6,64.4,17.72,South,182,5.8,5.8,73,0.00,,,0.75,VWS V13.01,2013-06-17 16:32:00,
2013-06-17 11:33:00,73.9,64.8,17.72,South,183,2.2,2.2,73,0.00,,,0.75,VWS V13.01,2013-06-17 16:33:00,
2013-06-17 11:35:00,74.1,64.9,17.72,South,179,3.1,3.1,73,0.00,,,0.75,VWS V13.01,2013-06-17 16:35:00,
2013-06-17 11:37:00,74.5,65.3,17.72,South,178,0.0,0.0,73,0.00,,,0.75,VWS V13.01,2013-06-17 16:37:00,
2013-06-17 11:38:00,74.8,65.6,17.72,South,178,0.0,0.0,73,0.00,,,0.75,VWS V13.01,2013-06-17 16:38:00,
2013-06-17 11:40:00,75.7,64.0,17.72,SSW,208,0.0,0.0,67,0.00,,,0.75,VWS V13.01,2013-06-17 16:40:00,
2013-06-17 11:41:00,75.9,64.2,17.72,SSW,208,0.0,0.0,67,0.00,,,0.75,VWS V13.01,2013-06-17 16:41:00,
2013-06-17 11:42:00,75.9,58.6,17.72,South,187,0.0,0.0,55,0.00,,,0.75,VWS V13.01,2013-06-17 16:42:00,
2013-06-17 11:43:00,75.9,58.6,17.72,SSW,200,2.7,2.7,55,0.00,,,0.75,VWS V13.01,2013-06-17 16:43:00,
2013-06-17 11:45:00,76.1,64.4,17.72,South,177,0.0,0.0,67,0.00,,,0.75,VWS V13.01,2013-06-17 16:45:00,
2013-06-17 11:46:00,76.3,64.5,17.72,South,175,4.9,4.9,67,0.00,,,0.75,VWS V13.01,2013-06-17 16:46:00,
2013-06-17 11:47:00,76.1,58.8,17.72,South,175,4.9,4.9,55,0.00,,,0.75,VWS V13.01,2013-06-17 16:47:00,
2013-06-17 11:48:00,75.9,58.6,17.72,South,180,4.0,4.0,55,0.00,,,0.75,VWS V13.01,2013-06-17 16:48:00,
2013-06-17 11:50:00,76.8,59.5,17.72,South,187,0.0,0.0,55,0.00,,,0.75,VWS V13.01,2013-06-17 16:50:00,
2013-06-17 11:51:00,77.0,59.6,17.72,South,186,2.7,2.7,55,0.00,,,0.75,VWS V13.01,2013-06-17 16:51:00,
2013-06-17 11:52:00,77.2,59.8,17.72,South,175,4.0,4.0,55,0.00,,,0.75,VWS V13.01,2013-06-17 16:52:00,
2013-06-17 11:53:00,76.8,59.5,17.72,South,182,5.4,5.4,55,0.00,,,0.75,VWS V13.01,2013-06-17 16:53:00,
2013-06-17 11:55:00,76.6,59.3,17.72,South,178,3.1,3.1,55,0.00,,,0.75,VWS V13.01,2013-06-17 16:55:00,
2013-06-17 11:57:00,76.3,58.9,17.72,South,181,5.8,5.8,55,0.00,,,0.75,VWS V13.01,2013-06-17 16:57:00,
2013-06-17 11:58:00,77.2,59.8,17.72,South,188,0.0,0.0,55,0.00,,,0.75,VWS V13.01,2013-06-17 16:58:00,
2013-06-17 12:01:00,77.5,60.1,17.72,South,181,5.4,5.4,55,0.00,,,0.75,VWS V13.01,2013-06-17 17:01:00,
2013-06-17 12:02:00,77.4,60.0,17.72,South,180,3.1,3.1,55,0.00,,,0.75,VWS V13.01,2013-06-17 17:02:00,
2013-06-17 12:03:00,76.8,59.5,17.72,South,184,6.3,6.3,55,0.00,,,0.75,VWS V13.01,2013-06-17 17:03:00,
2013-06-17 12:06:00,76.8,59.5,17.72,South,183,4.9,4.9,55,0.00,,,0.75,VWS V13.01,2013-06-17 17:06:00,
2013-06-17 12:07:00,77.2,59.8,17.72,South,187,5.4,5.4,55,0.00,,,0.75,VWS V13.01,2013-06-17 17:07:00,
2013-06-17 12:08:00,76.3,58.9,17.72,South,182,8.1,8.1,55,0.00,,,0.75,VWS V13.01,2013-06-17 17:08:00,
2013-06-17 12:11:00,76.6,59.3,17.72,South,183,0.0,0.0,55,0.00,,,0.75,VWS V13.01,2013-06-17 17:11:00,
2013-06-17 12:12:00,77.4,60.0,17.72,South,183,0.0,0.0,55,0.00,,,0.75,VWS V13.01,2013-06-17 17:12:00,
2013-06-17 12:13:00,77.4,60.0,17.72,South,182,3.6,3.6,55,0.00,,,0.75,VWS V13.01,2013-06-17 17:13:00,
2013-06-17 12:16:00,75.9,58.6,17.72,South,184,7.6,7.6,55,0.00,,,0.75,VWS V13.01,2013-06-17 17:16:00,
2013-06-17 12:17:00,75.9,58.6,17.72,South,181,4.9,4.9,55,0.00,,,0.75,VWS V13.01,2013-06-17 17:17:00,
2013-06-17 12:18:00,76.3,58.9,17.72,SSW,194,2.2,2.2,55,0.00,,,0.75,VWS V13.01,2013-06-17 17:18:00,
2013-06-17 12:21:00,77.4,60.0,17.72,South,184,0.0,0.0,55,0.00,,,0.75,VWS V13.01,2013-06-17 17:21:00,
2013-06-17 12:22:00,77.0,59.6,17.72,South,178,4.0,4.0,55,0.00,,,0.75,VWS V13.01,2013-06-17 17:22:00,
2013-06-17 12:23:00,76.6,59.3,17.72,South,183,6.3,6.3,55,0.00,,,0.75,VWS V13.01,2013-06-17 17:23:00,
2013-06-17 12:26:00,76.5,59.1,17.72,South,179,4.0,4.0,55,0.00,,,0.75,VWS V13.01,2013-06-17 17:26:00,
2013-06-17 12:27:00,76.8,59.5,17.72,South,181,0.0,0.0,55,0.00,,,0.75,VWS V13.01,2013-06-17 17:27:00,
2013-06-17 12:28:00,77.2,59.8,17.72,South,181,0.0,0.0,55,0.00,,,0.75,VWS V13.01,2013-06-17 17:28:00,
2013-06-17 12:31:00,77.5,60.1,17.72,South,180,3.6,3.6,55,0.00,,,0.75,VWS V13.01,2013-06-17 17:31:00,
2013-06-17 12:32:00,77.9,60.5,17.72,South,183,0.0,0.0,55,0.00,,,0.75,VWS V13.01,2013-06-17 17:32:00,
2013-06-17 12:33:00,77.9,60.5,17.72,South,175,5.8,5.8,55,0.00,,,0.75,VWS V13.01,2013-06-17 17:33:00,
2013-06-17 12:36:00,78.3,60.8,17.72,South,184,3.1,3.1,55,0.00,,,0.75,VWS V13.01,2013-06-17 17:36:00,
2013-06-17 12:37:00,77.9,60.5,17.72,SSW,193,3.6,3.6,55,0.00,,,0.75,VWS V13.01,2013-06-17 17:37:00,
2013-06-17 12:38:00,77.4,60.0,17.72,South,177,8.1,8.1,55,0.00,,,0.75,VWS V13.01,2013-06-17 17:38:00,
2013-06-17 12:41:00,76.8,59.5,17.72,South,180,6.7,6.7,55,0.00,,,0.75,VWS V13.01,2013-06-17 17:41:00,
2013-06-17 12:42:00,76.6,59.3,17.72,South,178,5.8,5.8,55,0.00,,,0.75,VWS V13.01,2013-06-17 17:42:00,
2013-06-17 12:43:00,77.0,59.6,17.72,South,186,2.7,2.7,55,0.00,,,0.75,VWS V13.01,2013-06-17 17:43:00,
2013-06-17 12:46:00,75.7,58.4,17.72,South,185,6.3,6.3,55,0.00,,,0.75,VWS V13.01,2013-06-17 17:46:00,
2013-06-17 12:47:00,75.4,58.1,17.72,South,187,8.3,8.3,55,0.00,,,0.75,VWS V13.01,2013-06-17 17:47:00,
2013-06-17 12:48:00,75.4,58.1,17.72,South,183,6.3,6.3,55,0.00,,,0.75,VWS V13.01,2013-06-17 17:48:00,
2013-06-17 12:51:00,75.2,57.9,17.72,South,183,3.6,3.6,55,0.00,,,0.75,VWS V13.01,2013-06-17 17:51:00,
2013-06-17 12:52:00,75.2,57.9,17.72,South,183,4.0,4.0,55,0.00,,,0.75,VWS V13.01,2013-06-17 17:52:00,
2013-06-17 12:53:00,75.2,57.9,17.72,South,182,7.6,7.6,55,0.00,,,0.75,VWS V13.01,2013-06-17 17:53:00,
2013-06-17 12:56:00,74.7,57.4,17.72,South,185,5.4,5.4,55,0.00,,,0.75,VWS V13.01,2013-06-17 17:56:00,
2013-06-17 12:57:00,74.8,57.6,17.72,South,184,5.4,5.4,55,0.00,,,0.75,VWS V13.01,2013-06-17 17:57:00,
2013-06-17 12:58:00,74.8,57.6,17.72,South,183,7.6,7.6,55,0.00,,,0.75,VWS V13.01,2013-06-17 17:58:00,
2013-06-17 12:59:00,74.8,57.6,17.72,South,183,3.6,3.6,55,0.00,,,0.75,VWS V13.01,2013-06-17 17:59:00,
2013-06-17 13:01:00,74.8,57.6,17.72,South,182,5.8,5.8,55,0.00,,,0.75,VWS V13.01,2013-06-17 18:01:00,
2013-06-17 13:02:00,74.8,57.6,17.72,South,183,3.6,3.6,55,0.00,,,0.75,VWS V13.01,2013-06-17 18:02:00,
2013-06-17 13:03:00,74.8,57.6,17.72,South,182,3.1,3.1,55,0.00,,,0.75,VWS V13.01,2013-06-17 18:03:00,
2013-06-17 13:04:00,74.8,57.6,17.72,South,182,0.0,0.0,55,0.00,,,0.75,VWS V13.01,2013-06-17 18:04:00,
2013-06-17 13:06:00,75.0,57.8,17.72,South,182,0.0,0.0,55,0.00,,,0.75,VWS V13.01,2013-06-17 18:06:00,
2013-06-17 13:07:00,75.0,57.8,17.72,South,182,0.0,0.0,55,0.00,,,0.75,VWS V13.01,2013-06-17 18:07:00,
2013-06-17 13:08:00,75.0,57.8,17.72,South,182,0.0,0.0,55,0.00,,,0.75,VWS V13.01,2013-06-17 18:08:00,
2013-06-17 13:09:00,75.0,57.8,17.72,South,182,0.0,0.0,55,0.00,,,0.75,VWS V13.01,2013-06-17 18:09:00,
2013-06-17 13:11:00,74.7,57.4,17.72,South,182,0.0,0.0,55,0.00,,,0.75,VWS V13.01,2013-06-17 18:11:00,
2013-06-17 13:12:00,74.3,57.1,17.72,South,182,4.9,4.9,55,0.00,,,0.75,VWS V13.01,2013-06-17 18:12:00,
2013-06-17 13:13:00,73.8,64.6,17.72,South,182,5.8,5.8,73,0.00,,,0.75,VWS V13.01,2013-06-17 18:13:00,
2013-06-17 13:14:00,73.6,64.4,17.72,South,182,3.6,3.6,73,0.00,,,0.75,VWS V13.01,2013-06-17 18:14:00,
2013-06-17 13:16:00,72.1,63.0,17.72,South,182,2.7,2.7,73,0.00,,,0.75,VWS V13.01,2013-06-17 18:16:00,
2013-06-17 13:17:00,72.1,69.4,17.72,South,182,4.0,4.0,91,0.00,,,0.75,VWS V13.01,2013-06-17 18:17:00,
2013-06-17 13:18:00,71.8,71.8,17.72,South,182,3.1,3.1,100,0.00,,,0.75,VWS V13.01,2013-06-17 18:18:00,
2013-06-17 13:19:00,71.8,71.8,17.72,South,182,0.0,0.0,100,0.00,,,0.75,VWS V13.01,2013-06-17 18:19:00,
2013-06-17 13:21:00,71.6,71.6,17.72,South,182,0.0,0.0,100,0.00,,,0.75,VWS V13.01,2013-06-17 18:21:00,
2013-06-17 13:22:00,71.4,71.4,17.72,South,182,0.0,0.0,100,0.00,,,0.75,VWS V13.01,2013-06-17 18:22:00,
2013-06-17 13:23:00,71.4,71.4,17.72,South,182,0.0,0.0,100,0.00,,,0.75,VWS V13.01,2013-06-17 18:23:00,
2013-06-17 13:24:00,71.4,71.4,17.72,South,182,0.0,0.0,100,0.00,,,0.75,VWS V13.01,2013-06-17 18:24:00,
2013-06-17 13:26:00,70.9,70.9,17.72,South,188,0.0,0.0,100,0.00,,,0.75,VWS V13.01,2013-06-17 18:26:00,
2013-06-17 13:27:00,70.9,70.9,17.72,South,188,0.0,0.0,100,0.00,,,0.75,VWS V13.01,2013-06-17 18:27:00,
2013-06-17 13:28:00,70.9,70.9,17.72,South,188,0.0,0.0,100,0.00,,,0.75,VWS V13.01,2013-06-17 18:28:00,
2013-06-17 13:29:00,70.9,70.9,17.72,South,188,0.0,0.0,100,0.00,,,0.75,VWS V13.01,2013-06-17 18:29:00,
2013-06-17 13:31:00,70.7,70.7,17.72,South,188,0.0,0.0,100,0.00,,,0.75,VWS V13.01,2013-06-17 18:31:00,
2013-06-17 13:32:00,70.7,70.7,17.72,South,188,0.0,0.0,100,0.00,,,0.75,VWS V13.01,2013-06-17 18:32:00,
2013-06-17 13:33:00,70.7,70.7,17.72,South,188,0.0,0.0,100,0.00,,,0.75,VWS V13.01,2013-06-17 18:33:00,
2013-06-17 13:34:00,70.7,70.7,17.72,South,188,0.0,0.0,100,0.00,,,0.75,VWS V13.01,2013-06-17 18:34:00,
2013-06-17 13:36:00,70.5,70.5,17.72,South,188,0.0,0.0,100,0.00,,,0.79,VWS V13.01,2013-06-17 18:36:00,
2013-06-17 13:38:00,70.5,70.5,17.72,South,188,0.0,0.0,100,0.04,,,0.79,VWS V13.01,2013-06-17 18:38:00,
2013-06-17 13:39:00,70.5,70.5,17.72,South,188,0.0,0.0,100,0.04,,,0.79,VWS V13.01,2013-06-17 18:39:00,
2013-06-17 13:42:00,70.3,70.3,17.72,WSW,257,0.0,0.0,100,0.04,,,0.79,VWS V13.01,2013-06-17 18:42:00,
2013-06-17 13:43:00,70.2,70.2,17.72,West,260,0.0,0.0,100,0.04,,,0.79,VWS V13.01,2013-06-17 18:43:00,
2013-06-17 13:44:00,70.2,70.2,17.72,West,260,0.0,0.0,100,0.04,,,0.79,VWS V13.01,2013-06-17 18:44:00,
2013-06-17 13:47:00,70.0,70.0,17.72,West,260,0.0,0.0,100,0.04,,,0.79,VWS V13.01,2013-06-17 18:47:00,
2013-06-17 13:48:00,70.0,70.0,17.72,West,260,0.0,0.0,100,0.04,,,0.79,VWS V13.01,2013-06-17 18:48:00,
2013-06-17 13:49:00,70.0,70.0,17.72,West,260,0.0,0.0,100,0.04,,,0.79,VWS V13.01,2013-06-17 18:49:00,
2013-06-17 13:52:00,69.8,69.8,17.72,WNW,298,0.0,0.0,100,0.04,,,0.79,VWS V13.01,2013-06-17 18:52:00,
2013-06-17 13:53:00,69.6,69.6,17.72,NNW,344,0.0,0.0,100,0.04,,,0.79,VWS V13.01,2013-06-17 18:53:00,
2013-06-17 13:54:00,69.6,69.6,17.72,NW,314,2.7,2.7,100,0.04,,,0.79,VWS V13.01,2013-06-17 18:54:00,
2013-06-17 13:57:00,69.6,69.6,17.72,NNW,330,0.0,0.0,100,0.04,,,0.79,VWS V13.01,2013-06-17 18:57:00,
2013-06-17 13:58:00,69.6,69.6,17.72,West,274,0.0,0.0,100,0.04,,,0.79,VWS V13.01,2013-06-17 18:58:00,
2013-06-17 13:59:00,69.6,69.6,17.72,NNW,348,0.0,0.0,100,0.04,,,0.79,VWS V13.01,2013-06-17 18:59:00,
2013-06-17 14:02:00,69.6,69.6,17.72,WNW,290,0.0,0.0,100,0.04,,,0.79,VWS V13.01,2013-06-17 19:02:00,
2013-06-17 14:03:00,69.6,69.6,17.72,WNW,290,0.0,0.0,100,0.08,,,0.83,VWS V13.01,2013-06-17 19:03:00,
2013-06-17 14:04:00,69.6,69.6,17.72,WNW,299,0.0,0.0,100,0.08,,,0.83,VWS V13.01,2013-06-17 19:04:00,
2013-06-17 14:07:00,69.4,69.4,17.72,NW,309,0.0,0.0,100,0.08,,,0.83,VWS V13.01,2013-06-17 19:07:00,
2013-06-17 14:08:00,69.4,69.4,17.72,NNW,338,0.0,0.0,100,0.08,,,0.83,VWS V13.01,2013-06-17 19:08:00,
2013-06-17 14:09:00,69.4,69.4,17.72,NNW,338,0.0,0.0,100,0.08,,,0.83,VWS V13.01,2013-06-17 19:09:00,
2013-06-17 14:12:00,69.4,69.4,17.72,North,8,0.0,0.0,100,0.08,,,0.83,VWS V13.01,2013-06-17 19:12:00,
2013-06-17 14:13:00,69.4,69.4,17.72,North,8,0.0,0.0,100,0.08,,,0.83,VWS V13.01,2013-06-17 19:13:00,
2013-06-17 14:14:00,69.4,69.4,17.72,North,8,0.0,0.0,100,0.08,,,0.83,VWS V13.01,2013-06-17 19:14:00,
2013-06-17 14:17:00,69.6,69.6,17.72,North,8,0.0,0.0,100,0.08,,,0.83,VWS V13.01,2013-06-17 19:17:00,
2013-06-17 14:18:00,69.4,69.4,17.72,NNW,348,0.0,0.0,100,0.08,,,0.83,VWS V13.01,2013-06-17 19:18:00,
2013-06-17 14:19:00,69.4,69.4,17.72,NNW,348,0.0,0.0,100,0.08,,,0.83,VWS V13.01,2013-06-17 19:19:00,
2013-06-17 14:20:00,69.6,69.6,17.72,NNW,348,0.0,0.0,100,0.08,,,0.83,VWS V13.01,2013-06-17 19:20:00,
2013-06-17 14:22:00,69.4,69.4,17.72,NNW,348,0.0,0.0,100,0.08,,,0.83,VWS V13.01,2013-06-17 19:22:00,
2013-06-17 14:23:00,69.4,69.4,17.72,NNW,348,0.0,0.0,100,0.08,,,0.83,VWS V13.01,2013-06-17 19:23:00,
2013-06-17 14:24:00,69.4,69.4,17.72,NNW,348,0.0,0.0,100,0.08,,,0.83,VWS V13.01,2013-06-17 19:24:00,
2013-06-17 14:25:00,69.4,69.4,17.72,NNW,348,0.0,0.0,100,0.08,,,0.83,VWS V13.01,2013-06-17 19:25:00,
2013-06-17 14:27:00,69.4,69.4,17.72,West,277,0.0,0.0,100,0.08,,,0.83,VWS V13.01,2013-06-17 19:27:00,
2013-06-17 14:28:00,69.6,69.6,17.72,West,277,0.0,0.0,100,0.08,,,0.83,VWS V13.01,2013-06-17 19:28:00,
2013-06-17 14:29:00,69.6,69.6,17.72,West,277,0.0,0.0,100,0.08,,,0.83,VWS V13.01,2013-06-17 19:29:00,
2013-06-17 14:30:00,69.6,69.6,17.72,West,277,0.0,0.0,100,0.08,,,0.83,VWS V13.01,2013-06-17 19:30:00,
2013-06-17 14:32:00,69.4,69.4,17.72,West,271,0.0,0.0,100,0.08,,,0.83,VWS V13.01,2013-06-17 19:32:00,
2013-06-17 14:33:00,69.4,69.4,17.72,West,271,0.0,0.0,100,0.08,,,0.83,VWS V13.01,2013-06-17 19:33:00,
2013-06-17 14:34:00,69.4,69.4,17.72,West,271,0.0,0.0,100,0.08,,,0.83,VWS V13.01,2013-06-17 19:34:00,
2013-06-17 14:35:00,69.4,69.4,17.72,West,281,3.1,3.1,100,0.08,,,0.83,VWS V13.01,2013-06-17 19:35:00,
2013-06-17 14:37:00,69.4,69.4,17.72,West,279,0.0,0.0,100,0.08,,,0.83,VWS V13.01,2013-06-17 19:37:00,
2013-06-17 14:38:00,69.4,69.4,17.72,NW,309,6.3,6.3,100,0.04,,,0.83,VWS V13.01,2013-06-17 19:38:00,
2013-06-17 14:39:00,69.4,69.4,17.72,West,280,2.7,2.7,100,0.04,,,0.83,VWS V13.01,2013-06-17 19:39:00,
2013-06-17 14:40:00,69.4,69.4,17.72,WNW,294,0.0,0.0,100,0.08,,,0.87,VWS V13.01,2013-06-17 19:40:00,
2013-06-17 14:42:00,69.4,69.4,17.72,WNW,282,0.0,0.0,100,0.08,,,0.87,VWS V13.01,2013-06-17 19:42:00,
2013-06-17 14:43:00,69.4,69.4,17.72,West,270,2.7,2.7,100,0.08,,,0.87,VWS V13.01,2013-06-17 19:43:00,
2013-06-17 14:44:00,69.4,69.4,17.72,WNW,298,6.3,6.3,100,0.08,,,0.87,VWS V13.01,2013-06-17 19:44:00,
2013-06-17 14:45:00,69.4,69.4,17.72,WNW,298,5.8,5.8,100,0.08,,,0.87,VWS V13.01,2013-06-17 19:45:00,
2013-06-17 14:47:00,69.4,69.4,17.72,North,353,2.7,2.7,100,0.08,,,0.87,VWS V13.01,2013-06-17 19:47:00,
2013-06-17 14:48:00,69.3,69.3,17.72,NNW,348,3.1,3.1,100,0.08,,,0.87,VWS V13.01,2013-06-17 19:48:00,
2013-06-17 14:49:00,69.4,69.4,17.72,NNW,340,3.6,3.6,100,0.08,,,0.87,VWS V13.01,2013-06-17 19:49:00,
2013-06-17 14:50:00,69.4,69.4,17.72,NNW,329,4.9,4.9,100,0.08,,,0.87,VWS V13.01,2013-06-17 19:50:00,
2013-06-17 14:52:00,69.4,69.4,17.72,West,278,3.1,3.1,100,0.08,,,0.87,VWS V13.01,2013-06-17 19:52:00,
2013-06-17 14:53:00,69.4,69.4,17.72,NNW,328,0.0,0.0,100,0.08,,,0.87,VWS V13.01,2013-06-17 19:53:00,
2013-06-17 14:54:00,69.4,69.4,17.72,WNW,296,0.0,0.0,100,0.08,,,0.87,VWS V13.01,2013-06-17 19:54:00,
2013-06-17 14:55:00,69.4,69.4,17.72,WNW,296,0.0,0.0,100,0.08,,,0.87,VWS V13.01,2013-06-17 19:55:00,
2013-06-17 14:57:00,69.4,69.4,17.72,WNW,294,6.3,6.3,100,0.08,,,0.87,VWS V13.01,2013-06-17 19:57:00,
2013-06-17 14:58:00,69.3,69.3,17.72,West,278,4.0,4.0,100,0.08,,,0.87,VWS V13.01,2013-06-17 19:58:00,
2013-06-17 14:59:00,69.3,69.3,17.72,WNW,294,2.7,2.7,100,0.08,,,0.87,VWS V13.01,2013-06-17 19:59:00,
2013-06-17 15:00:00,69.3,69.3,17.72,West,267,3.6,3.6,100,0.08,,,0.87,VWS V13.01,2013-06-17 20:00:00,
2013-06-17 15:02:00,69.1,69.1,17.72,NW,307,2.7,2.7,100,0.08,,,0.87,VWS V13.01,2013-06-17 20:02:00,
2013-06-17 15:03:00,69.1,69.1,17.72,NNW,344,3.6,3.6,100,0.08,,,0.87,VWS V13.01,2013-06-17 20:03:00,
2013-06-17 15:05:00,69.1,69.1,17.72,NW,319,2.7,2.7,100,0.04,,,0.87,VWS V13.01,2013-06-17 20:05:00,
2013-06-17 15:07:00,69.3,69.3,17.72,NW,316,4.0,4.0,100,0.04,,,0.87,VWS V13.01,2013-06-17 20:07:00,
2013-06-17 15:09:00,69.3,69.3,17.72,NNW,340,3.1,3.1,100,0.04,,,0.87,VWS V13.01,2013-06-17 20:09:00,
2013-06-17 15:10:00,69.4,69.4,17.72,NW,317,3.1,3.1,100,0.04,,,0.87,VWS V13.01,2013-06-17 20:10:00,
2013-06-17 15:12:00,69.4,69.4,17.72,WNW,286,7.2,7.2,100,0.04,,,0.87,VWS V13.01,2013-06-17 20:12:00,
2013-06-17 15:14:00,69.6,69.6,17.72,NNW,333,0.0,0.0,100,0.04,,,0.87,VWS V13.01,2013-06-17 20:14:00,
2013-06-17 15:15:00,69.6,69.6,17.72,NW,309,0.0,0.0,100,0.08,,,0.91,VWS V13.01,2013-06-17 20:15:00,
2013-06-17 15:17:00,69.8,69.8,17.72,WNW,300,3.6,3.6,100,0.08,,,0.91,VWS V13.01,2013-06-17 20:17:00,
2013-06-17 15:19:00,69.8,69.8,17.72,WNW,303,0.0,0.0,100,0.08,,,0.91,VWS V13.01,2013-06-17 20:19:00,
2013-06-17 15:20:00,70.0,70.0,17.72,WNW,303,0.0,0.0,100,0.08,,,0.91,VWS V13.01,2013-06-17 20:20:00,
2013-06-17 15:22:00,70.0,70.0,17.72,WNW,292,0.0,0.0,100,0.08,,,0.91,VWS V13.01,2013-06-17 20:22:00,
2013-06-17 15:24:00,70.0,70.0,17.72,WNW,292,0.0,0.0,100,0.08,,,0.91,VWS V13.01,2013-06-17 20:24:00,
2013-06-17 15:25:00,70.2,70.2,17.72,WNW,290,3.6,3.6,100,0.08,,,0.91,VWS V13.01,2013-06-17 20:25:00,
2013-06-17 15:27:00,70.2,70.2,17.72,West,275,3.1,3.1,100,0.08,,,0.91,VWS V13.01,2013-06-17 20:27:00,
2013-06-17 15:29:00,70.2,70.2,17.72,WNW,290,0.0,0.0,100,0.08,,,0.91,VWS V13.01,2013-06-17 20:29:00,
2013-06-17 15:30:00,70.3,70.3,17.72,WNW,290,0.0,0.0,100,0.08,,,0.91,VWS V13.01,2013-06-17 20:30:00,
2013-06-17 15:32:00,70.5,70.5,17.72,NW,304,2.7,2.7,100,0.08,,,0.91,VWS V13.01,2013-06-17 20:32:00,
2013-06-17 15:34:00,70.7,70.7,17.72,WNW,284,0.0,0.0,100,0.08,,,0.91,VWS V13.01,2013-06-17 20:34:00,
2013-06-17 15:35:00,70.5,70.5,17.72,WNW,285,3.1,3.1,100,0.08,,,0.91,VWS V13.01,2013-06-17 20:35:00,
2013-06-17 15:36:00,70.5,70.5,17.72,WSW,250,4.9,4.9,100,0.08,,,0.91,VWS V13.01,2013-06-17 20:36:00,
2013-06-17 15:37:00,70.5,70.5,17.72,WNW,298,3.1,3.1,100,0.08,,,0.91,VWS V13.01,2013-06-17 20:37:00,
2013-06-17 15:39:00,70.5,70.5,17.72,WNW,294,3.6,3.6,100,0.08,,,0.91,VWS V13.01,2013-06-17 20:39:00,
2013-06-17 15:40:00,70.5,70.5,17.72,WNW,289,3.6,3.6,100,0.08,,,0.91,VWS V13.01,2013-06-17 20:40:00,
2013-06-17 15:41:00,70.5,70.5,17.72,WNW,298,5.8,5.8,100,0.08,,,0.91,VWS V13.01,2013-06-17 20:41:00,
2013-06-17 15:42:00,70.5,70.5,17.72,NW,315,0.0,0.0,100,0.04,,,0.91,VWS V13.01,2013-06-17 20:42:00,
2013-06-17 15:44:00,70.5,70.5,17.72,WNW,286,0.0,0.0,100,0.04,,,0.91,VWS V13.01,2013-06-17 20:44:00,
2013-06-17 15:45:00,70.5,70.5,17.72,West,270,0.0,0.0,100,0.04,,,0.91,VWS V13.01,2013-06-17 20:45:00,
2013-06-17 15:46:00,70.5,70.5,17.72,West,259,4.9,4.9,100,0.04,,,0.91,VWS V13.01,2013-06-17 20:46:00,
2013-06-17 15:47:00,70.3,70.3,17.72,WNW,286,2.7,2.7,100,0.04,,,0.91,VWS V13.01,2013-06-17 20:47:00,
2013-06-17 15:49:00,70.3,70.3,17.72,West,280,3.6,3.6,100,0.04,,,0.91,VWS V13.01,2013-06-17 20:49:00,
2013-06-17 15:50:00,70.3,70.3,17.72,West,280,4.0,4.0,100,0.04,,,0.91,VWS V13.01,2013-06-17 20:50:00,
2013-06-17 15:51:00,70.2,70.2,17.72,NW,311,6.3,6.3,100,0.04,,,0.91,VWS V13.01,2013-06-17 20:51:00,
2013-06-17 15:52:00,70.0,70.0,17.72,West,277,4.0,4.0,100,0.04,,,0.91,VWS V13.01,2013-06-17 20:52:00,
2013-06-17 15:54:00,69.8,69.8,17.72,NNE,27,5.4,5.4,100,0.04,,,0.91,VWS V13.01,2013-06-17 20:54:00,
2013-06-17 15:55:00,69.6,69.6,17.72,West,277,4.0,4.0,100,0.04,,,0.91,VWS V13.01,2013-06-17 20:55:00,
2013-06-17 15:56:00,69.6,69.6,17.72,WNW,294,5.4,5.4,100,0.04,,,0.91,VWS V13.01,2013-06-17 20:56:00,
2013-06-17 15:57:00,69.6,69.6,17.72,NNW,336,4.0,4.0,100,0.04,,,0.91,VWS V13.01,2013-06-17 20:57:00,
2013-06-17 15:59:00,69.4,69.4,17.72,WNW,288,0.0,0.0,100,0.04,,,0.91,VWS V13.01,2013-06-17 20:59:00,
2013-06-17 16:00:00,69.4,69.4,17.72,WNW,284,3.1,3.1,100,0.04,,,0.91,VWS V13.01,2013-06-17 21:00:00,
2013-06-17 16:01:00,69.4,69.4,17.72,West,273,6.3,6.3,100,0.04,,,0.91,VWS V13.01,2013-06-17 21:01:00,
2013-06-17 16:02:00,69.3,69.3,17.72,WNW,289,2.2,2.2,100,0.04,,,0.91,VWS V13.01,2013-06-17 21:02:00,
2013-06-17 16:04:00,69.3,69.3,17.72,WNW,291,2.7,2.7,100,0.04,,,0.91,VWS V13.01,2013-06-17 21:04:00,
2013-06-17 16:05:00,69.1,69.1,17.72,NNW,341,2.7,2.7,100,0.04,,,0.91,VWS V13.01,2013-06-17 21:05:00,
2013-06-17 16:07:00,69.1,69.1,17.72,WNW,284,0.0,0.0,100,0.04,,,0.91,VWS V13.01,2013-06-17 21:07:00,
2013-06-17 16:09:00,68.9,68.9,17.72,WNW,285,3.1,3.1,100,0.04,,,0.91,VWS V13.01,2013-06-17 21:09:00,
2013-06-17 16:10:00,68.9,68.9,17.72,WNW,287,0.0,0.0,100,0.04,,,0.91,VWS V13.01,2013-06-17 21:10:00,
2013-06-17 16:11:00,68.9,68.9,17.72,WNW,299,2.7,2.7,100,0.04,,,0.91,VWS V13.01,2013-06-17 21:11:00,
2013-06-17 16:12:00,68.7,68.7,17.72,West,280,4.0,4.0,100,0.04,,,0.91,VWS V13.01,2013-06-17 21:12:00,
2013-06-17 16:14:00,68.5,68.5,17.72,WNW,284,4.9,4.9,100,0.04,,,0.91,VWS V13.01,2013-06-17 21:14:00,
2013-06-17 16:15:00,68.4,68.4,17.72,NW,316,4.0,4.0,100,0.04,,,0.91,VWS V13.01,2013-06-17 21:15:00,
2013-06-17 16:16:00,68.4,68.4,17.72,NW,316,3.1,3.1,100,0.04,,,0.91,VWS V13.01,2013-06-17 21:16:00,
2013-06-17 16:17:00,68.4,68.4,17.72,NW,313,6.3,6.3,100,0.00,,,0.91,VWS V13.01,2013-06-17 21:17:00,
2013-06-17 16:19:00,68.0,68.0,17.72,West,274,0.0,0.0,100,0.00,,,0.91,VWS V13.01,2013-06-17 21:19:00,
2013-06-17 16:21:00,68.0,68.0,17.72,WNW,296,5.8,5.8,100,0.00,,,0.91,VWS V13.01,2013-06-17 21:21:00,
2013-06-17 16:22:00,67.8,67.8,17.72,WNW,296,2.2,2.2,100,0.00,,,0.91,VWS V13.01,2013-06-17 21:22:00,
2013-06-17 16:24:00,67.5,67.5,17.72,WNW,300,3.6,3.6,100,0.00,,,0.91,VWS V13.01,2013-06-17 21:24:00,
2013-06-17 16:26:00,67.3,67.3,17.72,WNW,288,4.0,4.0,100,0.00,,,0.91,VWS V13.01,2013-06-17 21:26:00,
2013-06-17 16:27:00,67.3,67.3,17.72,WNW,288,2.2,2.2,100,0.00,,,0.91,VWS V13.01,2013-06-17 21:27:00,
2013-06-17 16:29:00,67.3,67.3,17.72,WNW,299,0.0,0.0,100,0.00,,,0.91,VWS V13.01,2013-06-17 21:29:00,
2013-06-17 16:31:00,67.3,67.3,17.72,WNW,299,0.0,0.0,100,0.00,,,0.94,VWS V13.01,2013-06-17 21:31:00,
2013-06-17 16:32:00,67.3,67.3,17.72,WNW,283,2.7,2.7,100,0.04,,,0.94,VWS V13.01,2013-06-17 21:32:00,
2013-06-17 16:33:00,67.3,67.3,17.72,West,271,3.6,3.6,100,0.04,,,0.94,VWS V13.01,2013-06-17 21:33:00,
2013-06-17 16:34:00,67.3,67.3,17.72,WNW,289,0.0,0.0,100,0.04,,,0.94,VWS V13.01,2013-06-17 21:34:00,
2013-06-17 16:36:00,67.3,67.3,17.72,WNW,286,0.0,0.0,100,0.04,,,0.94,VWS V13.01,2013-06-17 21:36:00,
2013-06-17 16:37:00,67.3,67.3,17.72,WNW,291,0.0,0.0,100,0.04,,,0.94,VWS V13.01,2013-06-17 21:37:00,
2013-06-17 16:38:00,67.1,67.1,17.72,WNW,287,0.0,0.0,100,0.04,,,0.94,VWS V13.01,2013-06-17 21:38:00,
2013-06-17 16:40:00,67.1,67.1,17.72,WNW,293,3.1,3.1,100,0.04,,,0.94,VWS V13.01,2013-06-17 21:40:00,
2013-06-17 16:41:00,66.9,66.9,17.72,West,262,3.6,3.6,100,0.04,,,0.94,VWS V13.01,2013-06-17 21:41:00,
2013-06-17 16:42:00,66.9,66.9,17.72,West,276,2.7,2.7,100,0.04,,,0.94,VWS V13.01,2013-06-17 21:42:00,
2013-06-17 16:43:00,66.7,66.7,17.72,West,276,0.0,0.0,100,0.04,,,0.94,VWS V13.01,2013-06-17 21:43:00,
2013-06-17 16:44:00,66.7,66.7,17.72,WNW,289,2.7,2.7,100,0.04,,,0.94,VWS V13.01,2013-06-17 21:44:00,
2013-06-17 16:46:00,66.6,66.6,17.72,West,277,0.0,0.0,100,0.04,,,0.94,VWS V13.01,2013-06-17 21:46:00,
2013-06-17 16:47:00,66.6,66.6,17.72,WNW,286,3.6,3.6,100,0.04,,,0.94,VWS V13.01,2013-06-17 21:47:00,
2013-06-17 16:48:00,66.6,66.6,17.72,WNW,285,3.1,3.1,100,0.04,,,0.94,VWS V13.01,2013-06-17 21:48:00,
2013-06-17 16:50:00,66.4,66.4,17.72,WNW,290,0.0,0.0,100,0.04,,,0.94,VWS V13.01,2013-06-17 21:50:00,
2013-06-17 16:51:00,66.4,66.4,17.72,WNW,290,0.0,0.0,100,0.04,,,0.94,VWS V13.01,2013-06-17 21:51:00,
2013-06-17 16:52:00,66.4,66.4,17.72,WNW,290,0.0,0.0,100,0.04,,,0.94,VWS V13.01,2013-06-17 21:52:00,
2013-06-17 16:53:00,66.4,66.4,17.72,WNW,290,0.0,0.0,100,0.04,,,0.94,VWS V13.01,2013-06-17 21:53:00,
2013-06-17 16:55:00,66.2,66.2,17.72,WNW,292,2.7,2.7,100,0.04,,,0.94,VWS V13.01,2013-06-17 21:55:00,
2013-06-17 16:56:00,66.2,66.2,17.72,NNW,341,3.1,3.1,100,0.04,,,0.94,VWS V13.01,2013-06-17 21:56:00,
2013-06-17 16:58:00,66.2,66.2,17.72,NNW,346,0.0,0.0,100,0.04,,,0.94,VWS V13.01,2013-06-17 21:58:00,
2013-06-17 17:00:00,66.2,66.2,17.72,WNW,288,0.0,0.0,100,0.08,,,0.98,VWS V13.01,2013-06-17 22:00:00,
2013-06-17 17:01:00,66.2,66.2,17.72,West,277,0.0,0.0,100,0.08,,,0.98,VWS V13.01,2013-06-17 22:01:00,
2013-06-17 17:03:00,66.2,66.2,17.72,WNW,282,0.0,0.0,100,0.08,,,0.98,VWS V13.01,2013-06-17 22:03:00,
2013-06-17 17:05:00,66.2,66.2,17.72,WNW,282,0.0,0.0,100,0.08,,,0.98,VWS V13.01,2013-06-17 22:05:00,
2013-06-17 17:06:00,66.2,66.2,17.72,WNW,287,0.0,0.0,100,0.08,,,0.98,VWS V13.01,2013-06-17 22:06:00,
2013-06-17 17:08:00,66.4,66.4,17.72,WNW,287,0.0,0.0,100,0.08,,,0.98,VWS V13.01,2013-06-17 22:08:00,
2013-06-17 17:10:00,66.4,66.4,17.72,NNE,18,0.0,0.0,100,0.08,,,0.98,VWS V13.01,2013-06-17 22:10:00,
2013-06-17 17:11:00,66.6,66.6,17.72,NE,37,0.0,0.0,100,0.08,,,0.98,VWS V13.01,2013-06-17 22:11:00,
2013-06-17 17:13:00,66.6,66.6,17.72,NNW,345,2.7,2.7,100,0.08,,,0.98,VWS V13.01,2013-06-17 22:13:00,
2013-06-17 17:15:00,66.6,66.6,17.72,NE,47,2.2,2.2,100,0.08,,,0.98,VWS V13.01,2013-06-17 22:15:00,
2013-06-17 17:16:00,66.6,66.6,17.72,North,0,0.0,0.0,100,0.08,,,0.98,VWS V13.01,2013-06-17 22:16:00,
2013-06-17 17:18:00,66.6,66.6,17.72,North,0,4.9,4.9,100,0.08,,,0.98,VWS V13.01,2013-06-17 22:18:00,
2013-06-17 17:20:00,66.6,66.6,17.72,ENE,58,3.1,3.1,100,0.08,,,0.98,VWS V13.01,2013-06-17 22:20:00,
2013-06-17 17:21:00,66.4,66.4,17.72,NE,42,3.6,3.6,100,0.08,,,0.98,VWS V13.01,2013-06-17 22:21:00,
2013-06-17 17:22:00,66.4,66.4,17.72,NE,50,2.7,2.7,100,0.08,,,0.98,VWS V13.01,2013-06-17 22:22:00,
2013-06-17 17:23:00,66.2,66.2,17.72,ENE,74,4.0,4.0,100,0.08,,,0.98,VWS V13.01,2013-06-17 22:23:00,
2013-06-17 17:25:00,66.2,66.2,17.72,NE,54,3.1,3.1,100,0.08,,,0.98,VWS V13.01,2013-06-17 22:25:00,
2013-06-17 17:26:00,66.0,66.0,17.72,NE,53,3.1,3.1,100,0.08,,,0.98,VWS V13.01,2013-06-17 22:26:00,
2013-06-17 17:27:00,66.0,66.0,17.72,ENE,64,3.6,3.6,100,0.08,,,0.98,VWS V13.01,2013-06-17 22:27:00,
2013-06-17 17:28:00,66.0,66.0,17.72,NNE,17,3.1,3.1,100,0.08,,,0.98,VWS V13.01,2013-06-17 22:28:00,
2013-06-17 17:30:00,66.0,66.0,17.72,East,92,4.0,4.0,100,0.08,,,0.98,VWS V13.01,2013-06-17 22:30:00,
2013-06-17 17:31:00,66.0,66.0,17.72,NE,35,2.2,2.2,100,0.08,,,0.98,VWS V13.01,2013-06-17 22:31:00,
2013-06-17 17:32:00,65.8,65.8,17.72,East,89,2.7,2.7,100,0.04,,,0.98,VWS V13.01,2013-06-17 22:32:00,
2013-06-17 17:33:00,65.8,65.8,17.72,ENE,65,2.7,2.7,100,0.04,,,0.98,VWS V13.01,2013-06-17 22:33:00,
2013-06-17 17:35:00,65.8,65.8,17.72,NE,55,3.1,3.1,100,0.04,,,0.98,VWS V13.01,2013-06-17 22:35:00,
2013-06-17 17:36:00,65.8,65.8,17.72,NE,36,0.0,0.0,100,0.04,,,0.98,VWS V13.01,2013-06-17 22:36:00,
2013-06-17 17:37:00,65.8,65.8,17.72,North,349,0.0,0.0,100,0.04,,,0.98,VWS V13.01,2013-06-17 22:37:00,
2013-06-17 17:38:00,65.8,65.8,17.72,NNW,334,0.0,0.0,100,0.04,,,0.98,VWS V13.01,2013-06-17 22:38:00,
2013-06-17 17:40:00,65.8,65.8,17.72,ENE,60,0.0,0.0,100,0.04,,,0.98,VWS V13.01,2013-06-17 22:40:00,
2013-06-17 17:42:00,65.8,65.8,17.72,ENE,64,0.0,0.0,100,0.04,,,0.98,VWS V13.01,2013-06-17 22:42:00,
2013-06-17 17:43:00,65.8,65.8,17.72,East,97,0.0,0.0,100,0.04,,,0.98,VWS V13.01,2013-06-17 22:43:00,
2013-06-17 17:45:00,65.7,65.7,17.72,ENE,65,3.1,3.1,100,0.04,,,0.98,VWS V13.01,2013-06-17 22:45:00,
2013-06-17 17:47:00,65.7,65.7,17.72,East,84,2.2,2.2,100,0.04,,,0.98,VWS V13.01,2013-06-17 22:47:00,
2013-06-17 17:48:00,65.7,65.7,17.72,ENE,70,0.0,0.0,100,0.04,,,0.98,VWS V13.01,2013-06-17 22:48:00,
2013-06-17 17:50:00,65.7,65.7,17.72,ENE,69,0.0,0.0,100,0.04,,,0.98,VWS V13.01,2013-06-17 22:50:00,
2013-06-17 17:52:00,65.8,65.8,17.72,East,89,0.0,0.0,100,0.04,,,0.98,VWS V13.01,2013-06-17 22:52:00,
2013-06-17 17:53:00,65.8,65.8,17.72,ENE,71,0.0,0.0,100,0.04,,,0.98,VWS V13.01,2013-06-17 22:53:00,
2013-06-17 17:54:00,65.8,65.8,17.72,ENE,71,0.0,0.0,100,0.04,,,0.98,VWS V13.01,2013-06-17 22:54:00,
2013-06-17 17:55:00,65.8,65.8,17.72,NNW,346,0.0,0.0,100,0.04,,,0.98,VWS V13.01,2013-06-17 22:55:00,
2013-06-17 17:57:00,66.0,66.0,17.72,NNW,346,0.0,0.0,100,0.04,,,0.98,VWS V13.01,2013-06-17 22:57:00,
2013-06-17 17:58:00,66.0,66.0,17.72,NNW,346,0.0,0.0,100,0.04,,,0.98,VWS V13.01,2013-06-17 22:58:00,
2013-06-17 17:59:00,66.0,66.0,17.72,NNW,346,0.0,0.0,100,0.04,,,0.98,VWS V13.01,2013-06-17 22:59:00,
2013-06-17 18:00:00,66.0,66.0,17.72,NNW,346,0.0,0.0,100,0.00,,,0.98,VWS V13.01,2013-06-17 23:00:00,
2013-06-17 18:02:00,66.0,66.0,17.72,ENE,72,0.0,0.0,100,0.00,,,0.98,VWS V13.01,2013-06-17 23:02:00,
2013-06-17 18:03:00,66.0,66.0,17.72,ENE,72,0.0,0.0,100,0.00,,,0.98,VWS V13.01,2013-06-17 23:03:00,
2013-06-17 18:04:00,66.0,66.0,17.72,ENE,72,0.0,0.0,100,0.00,,,0.98,VWS V13.01,2013-06-17 23:04:00,
2013-06-17 18:05:00,66.2,66.2,17.72,ENE,72,0.0,0.0,100,0.00,,,0.98,VWS V13.01,2013-06-17 23:05:00,
2013-06-17 18:07:00,66.2,66.2,17.72,ENE,72,0.0,0.0,100,0.00,,,0.98,VWS V13.01,2013-06-17 23:07:00,
2013-06-17 18:08:00,66.4,66.4,17.72,ENE,72,0.0,0.0,100,0.00,,,0.98,VWS V13.01,2013-06-17 23:08:00,
2013-06-17 18:09:00,66.4,66.4,17.72,ENE,72,0.0,0.0,100,0.00,,,0.98,VWS V13.01,2013-06-17 23:09:00,
2013-06-17 18:10:00,66.6,66.6,17.72,ENE,72,0.0,0.0,100,0.00,,,0.98,VWS V13.01,2013-06-17 23:10:00,
2013-06-17 18:12:00,66.6,66.6,17.72,ENE,72,0.0,0.0,100,0.00,,,0.98,VWS V13.01,2013-06-17 23:12:00,
2013-06-17 18:14:00,66.6,66.6,17.72,ENE,72,0.0,0.0,100,0.00,,,0.98,VWS V13.01,2013-06-17 23:14:00,
2013-06-17 18:15:00,66.6,66.6,17.72,ENE,72,0.0,0.0,100,0.00,,,0.98,VWS V13.01,2013-06-17 23:15:00,
2013-06-17 18:17:00,66.7,66.7,17.72,ENE,72,0.0,0.0,100,0.00,,,0.98,VWS V13.01,2013-06-17 23:17:00,
2013-06-17 18:19:00,66.9,66.9,17.72,ENE,72,0.0,0.0,100,0.00,,,0.98,VWS V13.01,2013-06-17 23:19:00,
2013-06-17 18:20:00,67.1,67.1,17.72,ENE,72,0.0,0.0,100,0.00,,,0.98,VWS V13.01,2013-06-17 23:20:00,
2013-06-17 18:22:00,67.3,67.3,17.72,ENE,72,0.0,0.0,100,0.00,,,0.98,VWS V13.01,2013-06-17 23:22:00,
2013-06-17 18:24:00,67.6,67.6,17.72,ENE,72,0.0,0.0,100,0.00,,,0.98,VWS V13.01,2013-06-17 23:24:00,
2013-06-17 18:26:00,68.0,68.0,17.72,ENE,72,0.0,0.0,100,0.00,,,0.98,VWS V13.01,2013-06-17 23:26:00,
2013-06-17 18:27:00,68.2,68.2,17.72,ENE,72,0.0,0.0,100,0.00,,,0.98,VWS V13.01,2013-06-17 23:27:00,
2013-06-17 18:29:00,68.7,68.7,17.72,ENE,72,0.0,0.0,100,0.00,,,0.98,VWS V13.01,2013-06-17 23:29:00,
2013-06-17 18:31:00,69.1,69.1,17.72,ENE,72,0.0,0.0,100,0.00,,,0.98,VWS V13.01,2013-06-17 23:31:00,
2013-06-17 18:32:00,69.3,69.3,17.72,ENE,72,0.0,0.0,100,0.00,,,0.98,VWS V13.01,2013-06-17 23:32:00,
2013-06-17 18:34:00,69.6,69.6,17.72,ENE,72,0.0,0.0,100,0.00,,,0.98,VWS V13.01,2013-06-17 23:34:00,
2013-06-17 18:36:00,69.8,69.8,17.72,ENE,72,0.0,0.0,100,0.00,,,0.98,VWS V13.01,2013-06-17 23:36:00,
2013-06-17 18:37:00,70.0,70.0,17.72,ENE,72,0.0,0.0,100,0.00,,,0.98,VWS V13.01,2013-06-17 23:37:00,
2013-06-17 18:39:00,70.2,70.2,17.72,ENE,72,0.0,0.0,100,0.00,,,0.98,VWS V13.01,2013-06-17 23:39:00,
2013-06-17 18:41:00,70.3,70.3,17.72,ENE,72,0.0,0.0,100,0.00,,,0.98,VWS V13.01,2013-06-17 23:41:00,
2013-06-17 18:42:00,70.3,70.3,17.72,ENE,72,0.0,0.0,100,0.00,,,0.98,VWS V13.01,2013-06-17 23:42:00,
2013-06-17 18:44:00,70.2,70.2,17.72,ENE,72,0.0,0.0,100,0.00,,,0.98,VWS V13.01,2013-06-17 23:44:00,
2013-06-17 18:46:00,69.6,69.6,17.72,NE,51,0.0,0.0,100,0.00,,,0.98,VWS V13.01,2013-06-17 23:46:00,
2013-06-17 18:47:00,69.4,69.4,17.72,ENE,71,0.0,0.0,100,0.00,,,0.98,VWS V13.01,2013-06-17 23:47:00,
2013-06-17 18:49:00,69.4,69.4,17.72,ENE,74,0.0,0.0,100,0.00,,,0.98,VWS V13.01,2013-06-17 23:49:00,
2013-06-17 18:51:00,69.4,69.4,17.72,ENE,74,0.0,0.0,100,0.00,,,0.98,VWS V13.01,2013-06-17 23:51:00,
2013-06-17 18:52:00,69.6,69.6,17.72,ENE,74,0.0,0.0,100,0.00,,,0.98,VWS V13.01,2013-06-17 23:52:00,
2013-06-17 18:54:00,69.4,69.4,17.72,ENE,74,0.0,0.0,100,0.00,,,0.98,VWS V13.01,2013-06-17 23:54:00,
2013-06-17 18:56:00,69.8,69.8,17.72,ENE,74,0.0,0.0,100,0.00,,,0.98,VWS V13.01,2013-06-17 23:56:00,
2013-06-17 18:57:00,70.0,70.0,17.72,NNW,335,0.0,0.0,100,0.00,,,0.98,VWS V13.01,2013-06-17 23:57:00,
2013-06-17 18:58:00,70.0,70.0,17.72,NNW,335,0.0,0.0,100,0.00,,,0.98,VWS V13.01,2013-06-17 23:58:00,
2013-06-17 18:59:00,70.2,70.2,17.72,NNW,335,0.0,0.0,100,0.00,,,0.98,VWS V13.01,2013-06-17 23:59:00,
2013-06-17 19:01:00,70.3,70.3,17.72,NNW,335,0.0,0.0,100,0.00,,,0.98,VWS V13.01,2013-06-18 00:01:00,
2013-06-17 19:02:00,70.3,70.3,17.72,NNW,335,0.0,0.0,100,0.00,,,0.98,VWS V13.01,2013-06-18 00:02:00,
2013-06-17 19:03:00,70.2,70.2,17.72,NNW,335,0.0,0.0,100,0.00,,,0.98,VWS V13.01,2013-06-18 00:03:00,
2013-06-17 19:04:00,70.3,70.3,17.72,NNW,335,0.0,0.0,100,0.00,,,0.98,VWS V13.01,2013-06-18 00:04:00,
2013-06-17 19:05:00,70.3,70.3,17.72,NNW,335,0.0,0.0,100,0.00,,,0.98,VWS V13.01,2013-06-18 00:05:00,
2013-06-17 19:06:00,70.3,70.3,17.72,NNW,335,0.0,0.0,100,0.00,,,0.98,VWS V13.01,2013-06-18 00:06:00,
2013-06-17 19:07:00,70.3,70.3,17.72,NNW,335,0.0,0.0,100,0.00,,,0.98,VWS V13.01,2013-06-18 00:07:00,
2013-06-17 19:08:00,70.3,70.3,17.72,NNW,335,0.0,0.0,100,0.00,,,0.98,VWS V13.01,2013-06-18 00:08:00,
2013-06-17 19:09:00,70.2,70.2,17.72,NNW,335,0.0,0.0,100,0.00,,,0.98,VWS V13.01,2013-06-18 00:09:00,
2013-06-17 19:11:00,70.3,70.3,17.72,NNW,335,0.0,0.0,100,0.00,,,0.98,VWS V13.01,2013-06-18 00:11:00,
2013-06-17 19:13:00,70.5,70.5,17.72,NNW,335,0.0,0.0,100,0.00,,,0.98,VWS V13.01,2013-06-18 00:13:00,
2013-06-17 19:14:00,71.1,71.1,17.72,NNW,335,0.0,0.0,100,0.00,,,0.98,VWS V13.01,2013-06-18 00:14:00,
2013-06-17 19:15:00,71.1,71.1,17.72,NNW,335,0.0,0.0,100,0.00,,,0.98,VWS V13.01,2013-06-18 00:15:00,
2013-06-17 19:16:00,71.8,71.8,17.72,NNW,335,0.0,0.0,100,0.00,,,0.98,VWS V13.01,2013-06-18 00:16:00,
2013-06-17 19:18:00,72.3,72.3,17.72,NNW,335,0.0,0.0,100,0.00,,,0.98,VWS V13.01,2013-06-18 00:18:00,
2013-06-17 19:19:00,73.0,73.1,17.72,NNW,335,0.0,0.0,100,0.00,,,0.98,VWS V13.01,2013-06-18 00:19:00,
2013-06-17 19:20:00,73.0,73.1,17.72,NNW,335,0.0,0.0,100,0.00,,,0.98,VWS V13.01,2013-06-18 00:20:00,
2013-06-17 19:21:00,73.4,73.4,17.72,NNW,335,0.0,0.0,100,0.00,,,0.98,VWS V13.01,2013-06-18 00:21:00,
2013-06-17 19:23:00,73.9,73.9,17.72,NNW,335,0.0,0.0,100,0.00,,,0.98,VWS V13.01,2013-06-18 00:23:00,
2013-06-17 19:24:00,74.3,74.3,17.72,NNW,335,0.0,0.0,100,0.00,,,0.98,VWS V13.01,2013-06-18 00:24:00,
2013-06-17 19:25:00,74.5,74.5,17.72,NNW,335,0.0,0.0,100,0.00,,,0.98,VWS V13.01,2013-06-18 00:25:00,
2013-06-17 19:26:00,74.7,74.7,17.72,NNW,335,0.0,0.0,100,0.00,,,0.98,VWS V13.01,2013-06-18 00:26:00,
2013-06-17 19:28:00,74.7,74.7,17.72,NNW,335,0.0,0.0,100,0.00,,,0.98,VWS V13.01,2013-06-18 00:28:00,
2013-06-17 19:30:00,74.8,74.8,17.72,NNW,335,0.0,0.0,100,0.00,,,0.98,VWS V13.01,2013-06-18 00:30:00,
2013-06-17 19:32:00,74.7,74.7,17.72,NNW,335,0.0,0.0,100,0.00,,,0.98,VWS V13.01,2013-06-18 00:32:00,
2013-06-17 19:33:00,74.7,74.7,17.72,NNW,335,0.0,0.0,100,0.00,,,0.98,VWS V13.01,2013-06-18 00:33:00,
2013-06-17 19:35:00,73.4,73.4,17.72,NNW,335,0.0,0.0,100,0.00,,,0.98,VWS V13.01,2013-06-18 00:35:00,
2013-06-17 19:37:00,74.3,74.3,17.72,NE,56,0.0,0.0,100,0.00,,,0.98,VWS V13.01,2013-06-18 00:37:00,
2013-06-17 19:38:00,74.7,74.7,17.72,NE,56,0.0,0.0,100,0.00,,,0.98,VWS V13.01,2013-06-18 00:38:00,
2013-06-17 19:40:00,75.2,75.2,17.72,NE,56,0.0,0.0,100,0.00,,,0.98,VWS V13.01,2013-06-18 00:40:00,
2013-06-17 19:42:00,75.2,75.2,17.72,NE,56,0.0,0.0,100,0.00,,,0.98,VWS V13.01,2013-06-18 00:42:00,
2013-06-17 19:43:00,75.2,75.2,17.72,NE,56,0.0,0.0,100,0.00,,,0.98,VWS V13.01,2013-06-18 00:43:00,
2013-06-17 19:45:00,74.7,74.7,17.72,NE,56,0.0,0.0,100,0.00,,,0.98,VWS V13.01,2013-06-18 00:45:00,
2013-06-17 19:47:00,74.3,74.3,17.72,NE,56,0.0,0.0,100,0.00,,,0.98,VWS V13.01,2013-06-18 00:47:00,
2013-06-17 19:48:00,73.8,73.8,17.72,NE,56,0.0,0.0,100,0.00,,,0.98,VWS V13.01,2013-06-18 00:48:00,
2013-06-17 19:50:00,73.2,73.2,17.72,NE,56,0.0,0.0,100,0.00,,,0.98,VWS V13.01,2013-06-18 00:50:00,
2013-06-17 19:52:00,72.9,72.9,17.72,NE,56,0.0,0.0,100,0.00,,,0.98,VWS V13.01,2013-06-18 00:52:00,
2013-06-17 19:53:00,72.3,72.3,17.72,NE,56,0.0,0.0,100,0.00,,,0.98,VWS V13.01,2013-06-18 00:53:00,
2013-06-17 19:54:00,72.3,72.3,17.72,NE,56,0.0,0.0,100,0.00,,,0.98,VWS V13.01,2013-06-18 00:54:00,
2013-06-17 19:55:00,72.0,72.0,17.72,NE,56,0.0,0.0,100,0.00,,,0.98,VWS V13.01,2013-06-18 00:55:00,
2013-06-17 19:57:00,71.6,71.6,17.72,NE,56,0.0,0.0,100,0.00,,,0.98,VWS V13.01,2013-06-18 00:57:00,
2013-06-17 19:58:00,71.2,71.2,17.72,NE,56,0.0,0.0,100,0.00,,,0.98,VWS V13.01,2013-06-18 00:58:00,
2013-06-17 19:59:00,71.1,71.1,17.72,NE,56,0.0,0.0,100,0.00,,,0.98,VWS V13.01,2013-06-18 00:59:00,
2013-06-17 20:00:00,70.7,70.7,17.72,NE,56,0.0,0.0,100,0.00,,,0.98,VWS V13.01,2013-06-18 01:00:00,
2013-06-17 20:02:00,70.5,70.5,17.72,NE,56,0.0,0.0,100,0.00,,,0.98,VWS V13.01,2013-06-18 01:02:00,
2013-06-17 20:03:00,70.2,70.2,17.72,NE,56,0.0,0.0,100,0.00,,,0.98,VWS V13.01,2013-06-18 01:03:00,
2013-06-17 20:04:00,70.0,70.0,17.72,NE,56,0.0,0.0,100,0.00,,,0.98,VWS V13.01,2013-06-18 01:04:00,
2013-06-17 20:05:00,69.8,69.8,17.72,NE,56,0.0,0.0,100,0.00,,,0.98,VWS V13.01,2013-06-18 01:05:00,
2013-06-17 20:07:00,69.6,69.6,17.72,NE,56,0.0,0.0,100,0.00,,,0.98,VWS V13.01,2013-06-18 01:07:00,
2013-06-17 20:08:00,69.3,69.3,17.72,NE,56,0.0,0.0,100,0.00,,,0.98,VWS V13.01,2013-06-18 01:08:00,
2013-06-17 20:09:00,69.3,69.3,17.72,NE,56,0.0,0.0,100,0.00,,,0.98,VWS V13.01,2013-06-18 01:09:00,
2013-06-17 20:10:00,69.1,69.1,17.72,NE,56,0.0,0.0,100,0.00,,,0.98,VWS V13.01,2013-06-18 01:10:00,
2013-06-17 20:12:00,68.9,68.9,17.72,NE,56,0.0,0.0,100,0.00,,,0.98,VWS V13.01,2013-06-18 01:12:00,
2013-06-17 20:13:00,68.5,68.5,17.72,NE,56,0.0,0.0,100,0.00,,,0.98,VWS V13.01,2013-06-18 01:13:00,
2013-06-17 20:14:00,68.5,68.5,17.72,NE,56,0.0,0.0,100,0.00,,,0.98,VWS V13.01,2013-06-18 01:14:00,
2013-06-17 20:15:00,68.4,68.4,17.72,NE,56,0.0,0.0,100,0.00,,,0.98,VWS V13.01,2013-06-18 01:15:00,
2013-06-17 20:17:00,68.2,68.2,17.72,NE,56,0.0,0.0,100,0.00,,,0.98,VWS V13.01,2013-06-18 01:17:00,
2013-06-17 20:19:00,68.0,68.0,17.72,NE,56,0.0,0.0,100,0.00,,,0.98,VWS V13.01,2013-06-18 01:19:00,
2013-06-17 20:20:00,68.0,68.0,17.72,NE,56,0.0,0.0,100,0.00,,,0.98,VWS V13.01,2013-06-18 01:20:00,
2013-06-17 20:22:00,67.8,67.8,17.72,NE,56,0.0,0.0,100,0.00,,,0.98,VWS V13.01,2013-06-18 01:22:00,
2013-06-17 20:24:00,67.6,67.6,17.72,NE,56,0.0,0.0,100,0.00,,,0.98,VWS V13.01,2013-06-18 01:24:00,
2013-06-17 20:26:00,67.5,67.5,17.72,NE,56,0.0,0.0,100,0.00,,,0.98,VWS V13.01,2013-06-18 01:26:00,
2013-06-17 20:27:00,67.5,67.5,17.72,NE,56,0.0,0.0,100,0.00,,,0.98,VWS V13.01,2013-06-18 01:27:00,
2013-06-17 20:29:00,67.3,67.3,17.72,NE,56,0.0,0.0,100,0.00,,,0.98,VWS V13.01,2013-06-18 01:29:00,
2013-06-17 20:31:00,67.1,67.1,17.72,NE,56,0.0,0.0,100,0.00,,,0.98,VWS V13.01,2013-06-18 01:31:00,
2013-06-17 20:32:00,66.9,66.9,17.72,NE,56,0.0,0.0,100,0.00,,,0.98,VWS V13.01,2013-06-18 01:32:00,
2013-06-17 20:34:00,66.9,66.9,17.72,NE,56,0.0,0.0,100,0.00,,,0.98,VWS V13.01,2013-06-18 01:34:00,
2013-06-17 20:36:00,66.7,66.7,17.72,NE,56,0.0,0.0,100,0.00,,,0.98,VWS V13.01,2013-06-18 01:36:00,
2013-06-17 20:37:00,66.7,66.7,17.72,NE,56,0.0,0.0,100,0.00,,,0.98,VWS V13.01,2013-06-18 01:37:00,
2013-06-17 20:39:00,66.7,66.7,17.72,NE,56,0.0,0.0,100,0.00,,,0.98,VWS V13.01,2013-06-18 01:39:00,
2013-06-17 20:41:00,66.7,66.7,17.72,NE,56,0.0,0.0,100,0.00,,,0.98,VWS V13.01,2013-06-18 01:41:00,
2013-06-17 20:42:00,66.6,66.6,17.72,NE,56,0.0,0.0,100,0.00,,,0.98,VWS V13.01,2013-06-18 01:42:00,
2013-06-17 20:44:00,66.6,66.6,17.72,NE,56,0.0,0.0,100,0.00,,,0.98,VWS V13.01,2013-06-18 01:44:00,
2013-06-17 20:46:00,66.4,66.4,17.72,NE,56,0.0,0.0,100,0.00,,,0.98,VWS V13.01,2013-06-18 01:46:00,
2013-06-17 20:47:00,66.4,66.4,17.72,NE,56,0.0,0.0,100,0.00,,,0.98,VWS V13.01,2013-06-18 01:47:00,
2013-06-17 20:49:00,66.4,66.4,17.72,NE,56,0.0,0.0,100,0.00,,,0.98,VWS V13.01,2013-06-18 01:49:00,
2013-06-17 20:51:00,66.2,66.2,17.72,NE,56,0.0,0.0,100,0.00,,,0.98,VWS V13.01,2013-06-18 01:51:00,
2013-06-17 20:52:00,66.0,66.0,17.72,NE,56,0.0,0.0,100,0.00,,,0.98,VWS V13.01,2013-06-18 01:52:00,
2013-06-17 20:54:00,66.0,66.0,17.72,NE,56,0.0,0.0,100,0.00,,,0.98,VWS V13.01,2013-06-18 01:54:00,
2013-06-17 20:56:00,66.0,66.0,17.72,NE,56,0.0,0.0,100,0.00,,,0.98,VWS V13.01,2013-06-18 01:56:00,
2013-06-17 20:57:00,66.0,66.0,17.72,NE,56,0.0,0.0,100,0.00,,,0.98,VWS V13.01,2013-06-18 01:57:00,
2013-06-17 20:59:00,66.0,66.0,17.72,NE,56,0.0,0.0,100,0.00,,,0.98,VWS V13.01,2013-06-18 01:59:00,
2013-06-17 21:01:00,65.8,65.8,17.72,NE,56,0.0,0.0,100,0.00,,,0.98,VWS V13.01,2013-06-18 02:01:00,
2013-06-17 21:02:00,65.8,65.8,17.72,NE,56,0.0,0.0,100,0.00,,,0.98,VWS V13.01,2013-06-18 02:02:00,
2013-06-17 21:04:00,65.8,65.8,17.72,NE,56,0.0,0.0,100,0.00,,,0.98,VWS V13.01,2013-06-18 02:04:00,
2013-06-17 21:06:00,65.8,65.8,17.72,NE,56,0.0,0.0,100,0.00,,,0.98,VWS V13.01,2013-06-18 02:06:00,
2013-06-17 21:08:00,65.7,65.7,17.72,NE,56,0.0,0.0,100,0.00,,,0.98,VWS V13.01,2013-06-18 02:08:00,
2013-06-17 21:09:00,65.8,65.8,17.72,NE,56,0.0,0.0,100,0.00,,,0.98,VWS V13.01,2013-06-18 02:09:00,
2013-06-17 21:11:00,65.7,65.7,17.72,NE,56,0.0,0.0,100,0.00,,,0.98,VWS V13.01,2013-06-18 02:11:00,
2013-06-17 21:13:00,65.7,65.7,17.72,NE,56,0.0,0.0,100,0.00,,,0.98,VWS V13.01,2013-06-18 02:13:00,
2013-06-17 21:14:00,65.7,65.7,17.72,NE,56,0.0,0.0,100,0.00,,,0.98,VWS V13.01,2013-06-18 02:14:00,
2013-06-17 21:15:00,65.7,65.7,17.72,NE,56,0.0,0.0,100,0.00,,,0.98,VWS V13.01,2013-06-18 02:15:00,
2013-06-17 21:16:00,65.7,65.7,17.72,NE,56,0.0,0.0,100,0.00,,,0.98,VWS V13.01,2013-06-18 02:16:00,
2013-06-17 21:18:00,65.5,65.5,17.72,NE,56,0.0,0.0,100,0.00,,,0.98,VWS V13.01,2013-06-18 02:18:00,
2013-06-17 21:19:00,65.5,65.5,17.72,NE,56,0.0,0.0,100,0.00,,,0.98,VWS V13.01,2013-06-18 02:19:00,
2013-06-17 21:20:00,65.5,65.5,17.72,NE,56,0.0,0.0,100,0.00,,,0.98,VWS V13.01,2013-06-18 02:20:00,
2013-06-17 21:21:00,65.3,65.3,17.72,NE,56,0.0,0.0,100,0.00,,,0.98,VWS V13.01,2013-06-18 02:21:00,
2013-06-17 21:23:00,65.3,65.3,17.72,NE,56,0.0,0.0,100,0.00,,,0.98,VWS V13.01,2013-06-18 02:23:00,
2013-06-17 21:24:00,65.3,65.3,17.72,NE,56,0.0,0.0,100,0.00,,,0.98,VWS V13.01,2013-06-18 02:24:00,
2013-06-17 21:25:00,65.3,65.3,17.72,NE,56,0.0,0.0,100,0.00,,,0.98,VWS V13.01,2013-06-18 02:25:00,
2013-06-17 21:26:00,65.3,65.3,17.72,NE,56,0.0,0.0,100,0.00,,,0.98,VWS V13.01,2013-06-18 02:26:00,
2013-06-17 21:28:00,65.3,65.3,17.72,NE,56,0.0,0.0,100,0.00,,,0.98,VWS V13.01,2013-06-18 02:28:00,
2013-06-17 21:29:00,65.3,65.3,17.72,NE,56,0.0,0.0,100,0.00,,,0.98,VWS V13.01,2013-06-18 02:29:00,
2013-06-17 21:30:00,65.3,65.3,17.72,NE,56,0.0,0.0,100,0.00,,,0.98,VWS V13.01,2013-06-18 02:30:00,
2013-06-17 21:31:00,65.3,65.3,17.72,NE,56,0.0,0.0,100,0.00,,,0.98,VWS V13.01,2013-06-18 02:31:00,
2013-06-17 21:32:00,65.1,65.1,17.72,NE,56,0.0,0.0,100,0.00,,,0.98,VWS V13.01,2013-06-18 02:32:00,
2013-06-17 21:33:00,65.1,65.1,17.72,NE,56,0.0,0.0,100,0.00,,,0.98,VWS V13.01,2013-06-18 02:33:00,
2013-06-17 21:34:00,65.1,65.1,17.72,NE,56,0.0,0.0,100,0.00,,,0.98,VWS V13.01,2013-06-18 02:34:00,
2013-06-17 21:35:00,65.1,65.1,17.72,NE,56,0.0,0.0,100,0.00,,,0.98,VWS V13.01,2013-06-18 02:35:00,
2013-06-17 21:36:00,65.1,65.1,17.72,NE,56,0.0,0.0,100,0.00,,,0.98,VWS V13.01,2013-06-18 02:36:00,
2013-06-17 21:37:00,65.1,65.1,17.72,NE,56,0.0,0.0,100,0.00,,,0.98,VWS V13.01,2013-06-18 02:37:00,
2013-06-17 21:39:00,65.1,65.1,17.72,NE,56,0.0,0.0,100,0.00,,,0.98,VWS V13.01,2013-06-18 02:39:00,
2013-06-17 21:40:00,65.1,65.1,17.72,NE,56,0.0,0.0,100,0.00,,,0.98,VWS V13.01,2013-06-18 02:40:00,
2013-06-17 21:41:00,65.1,65.1,17.72,NE,56,0.0,0.0,100,0.00,,,0.98,VWS V13.01,2013-06-18 02:41:00,
2013-06-17 21:42:00,65.1,65.1,17.72,NE,56,0.0,0.0,100,0.00,,,0.98,VWS V13.01,2013-06-18 02:42:00,
2013-06-17 21:44:00,64.9,64.9,17.72,NE,56,0.0,0.0,100,0.00,,,0.98,VWS V13.01,2013-06-18 02:44:00,
2013-06-17 21:45:00,64.8,64.8,17.72,NE,56,0.0,0.0,100,0.00,,,0.98,VWS V13.01,2013-06-18 02:45:00,
2013-06-17 21:46:00,64.8,64.8,17.72,NE,56,0.0,0.0,100,0.00,,,0.98,VWS V13.01,2013-06-18 02:46:00,
2013-06-17 21:47:00,64.8,64.8,17.72,NE,56,0.0,0.0,100,0.00,,,0.98,VWS V13.01,2013-06-18 02:47:00,
2013-06-17 21:49:00,64.8,64.8,17.72,NE,56,0.0,0.0,100,0.00,,,0.98,VWS V13.01,2013-06-18 02:49:00,
2013-06-17 21:50:00,64.6,64.6,17.72,NE,56,0.0,0.0,100,0.00,,,0.98,VWS V13.01,2013-06-18 02:50:00,
2013-06-17 21:51:00,64.6,64.6,17.72,NE,56,0.0,0.0,100,0.00,,,0.98,VWS V13.01,2013-06-18 02:51:00,
2013-06-17 21:52:00,64.8,64.8,17.72,NE,56,0.0,0.0,100,0.00,,,0.98,VWS V13.01,2013-06-18 02:52:00,
2013-06-17 21:54:00,64.8,64.8,17.72,NE,56,0.0,0.0,100,0.00,,,0.98,VWS V13.01,2013-06-18 02:54:00,
2013-06-17 21:55:00,64.8,64.8,17.72,NE,56,0.0,0.0,100,0.00,,,0.98,VWS V13.01,2013-06-18 02:55:00,
2013-06-17 21:56:00,64.8,64.8,17.72,NE,56,0.0,0.0,100,0.00,,,0.98,VWS V13.01,2013-06-18 02:56:00,
2013-06-17 21:57:00,64.8,64.8,17.72,NE,56,0.0,0.0,100,0.00,,,0.98,VWS V13.01,2013-06-18 02:57:00,
2013-06-17 21:59:00,64.8,64.8,17.72,NE,56,0.0,0.0,100,0.00,,,0.98,VWS V13.01,2013-06-18 02:59:00,
2013-06-17 22:00:00,64.8,64.8,17.72,NE,56,0.0,0.0,100,0.00,,,0.98,VWS V13.01,2013-06-18 03:00:00,
2013-06-17 22:01:00,64.8,64.8,17.72,NE,56,0.0,0.0,100,0.00,,,0.98,VWS V13.01,2013-06-18 03:01:00,
2013-06-17 22:02:00,64.8,64.8,17.72,NE,56,0.0,0.0,100,0.00,,,0.98,VWS V13.01,2013-06-18 03:02:00,
2013-06-17 22:04:00,64.9,64.9,17.72,NE,56,0.0,0.0,100,0.00,,,0.98,VWS V13.01,2013-06-18 03:04:00,
2013-06-17 22:05:00,64.9,64.9,17.72,NE,56,0.0,0.0,100,0.00,,,0.98,VWS V13.01,2013-06-18 03:05:00,
2013-06-17 22:06:00,65.1,65.1,17.72,NE,56,0.0,0.0,100,0.00,,,0.98,VWS V13.01,2013-06-18 03:06:00,
2013-06-17 22:07:00,65.1,65.1,17.72,NE,56,0.0,0.0,100,0.00,,,0.98,VWS V13.01,2013-06-18 03:07:00,
2013-06-17 22:09:00,65.1,65.1,17.72,NE,56,0.0,0.0,100,0.00,,,0.98,VWS V13.01,2013-06-18 03:09:00,
2013-06-17 22:10:00,65.3,65.3,17.72,NE,56,0.0,0.0,100,0.00,,,0.98,VWS V13.01,2013-06-18 03:10:00,
2013-06-17 22:12:00,65.3,65.3,17.72,NE,56,0.0,0.0,100,0.00,,,0.98,VWS V13.01,2013-06-18 03:12:00,
2013-06-17 22:14:00,65.7,65.7,17.72,NE,56,0.0,0.0,100,0.00,,,0.98,VWS V13.01,2013-06-18 03:14:00,
2013-06-17 22:15:00,65.7,65.7,17.72,NE,56,0.0,0.0,100,0.00,,,0.98,VWS V13.01,2013-06-18 03:15:00,
2013-06-17 22:17:00,65.5,65.5,17.72,NE,56,0.0,0.0,100,0.00,,,0.98,VWS V13.01,2013-06-18 03:17:00,
2013-06-17 22:19:00,65.8,65.8,17.72,SSW,192,0.0,0.0,100,0.00,,,0.98,VWS V13.01,2013-06-18 03:19:00,
2013-06-17 22:20:00,65.8,65.8,17.72,SSW,192,0.0,0.0,100,0.00,,,0.98,VWS V13.01,2013-06-18 03:20:00,
2013-06-17 22:22:00,66.0,66.0,17.72,SSW,192,0.0,0.0,100,0.00,,,0.98,VWS V13.01,2013-06-18 03:22:00,
2013-06-17 22:24:00,66.0,66.0,17.72,SSW,192,0.0,0.0,100,0.00,,,0.98,VWS V13.01,2013-06-18 03:24:00,
2013-06-17 22:25:00,66.0,66.0,17.72,SSW,192,0.0,0.0,100,0.00,,,0.98,VWS V13.01,2013-06-18 03:25:00,
2013-06-17 22:26:00,65.8,65.8,17.72,SSW,192,0.0,0.0,100,0.00,,,0.98,VWS V13.01,2013-06-18 03:26:00,
2013-06-17 22:27:00,65.8,65.8,17.72,SSW,192,0.0,0.0,100,0.00,,,0.98,VWS V13.01,2013-06-18 03:27:00,
2013-06-17 22:29:00,65.7,65.7,17.72,SSW,192,0.0,0.0,100,0.00,,,0.98,VWS V13.01,2013-06-18 03:29:00,
2013-06-17 22:30:00,65.7,65.7,17.72,SSW,192,0.0,0.0,100,0.00,,,0.98,VWS V13.01,2013-06-18 03:30:00,
2013-06-17 22:31:00,65.5,65.5,17.72,SSW,192,0.0,0.0,100,0.00,,,0.98,VWS V13.01,2013-06-18 03:31:00,
2013-06-17 22:32:00,65.5,65.5,17.72,SSW,192,0.0,0.0,100,0.00,,,0.98,VWS V13.01,2013-06-18 03:32:00,
2013-06-17 22:34:00,65.5,65.5,17.72,SSW,192,0.0,0.0,100,0.00,,,0.98,VWS V13.01,2013-06-18 03:34:00,
2013-06-17 22:35:00,65.5,65.5,17.72,SSW,192,0.0,0.0,100,0.00,,,0.98,VWS V13.01,2013-06-18 03:35:00,
2013-06-17 22:36:00,65.3,65.3,17.72,SSW,192,0.0,0.0,100,0.00,,,0.98,VWS V13.01,2013-06-18 03:36:00,
2013-06-17 22:37:00,65.3,65.3,17.72,SSW,192,0.0,0.0,100,0.00,,,0.98,VWS V13.01,2013-06-18 03:37:00,
2013-06-17 22:39:00,65.7,65.7,17.72,SSW,192,0.0,0.0,100,0.00,,,0.98,VWS V13.01,2013-06-18 03:39:00,
2013-06-17 22:40:00,65.7,65.7,17.72,SSW,192,0.0,0.0,100,0.00,,,0.98,VWS V13.01,2013-06-18 03:40:00,
2013-06-17 22:41:00,65.7,65.7,17.72,SSW,192,0.0,0.0,100,0.00,,,0.98,VWS V13.01,2013-06-18 03:41:00,
2013-06-17 22:42:00,65.8,65.8,17.72,SSW,192,0.0,0.0,100,0.00,,,0.98,VWS V13.01,2013-06-18 03:42:00,
2013-06-17 22:44:00,65.8,65.8,17.72,SSW,192,0.0,0.0,100,0.00,,,0.98,VWS V13.01,2013-06-18 03:44:00,
2013-06-17 22:45:00,65.8,65.8,17.72,SSW,192,0.0,0.0,100,0.00,,,0.98,VWS V13.01,2013-06-18 03:45:00,
2013-06-17 22:46:00,65.8,65.8,17.72,SSW,192,0.0,0.0,100,0.00,,,0.98,VWS V13.01,2013-06-18 03:46:00,
2013-06-17 22:47:00,65.8,65.8,17.72,SSW,192,0.0,0.0,100,0.00,,,0.98,VWS V13.01,2013-06-18 03:47:00,
2013-06-17 22:49:00,65.7,65.7,17.72,SSW,192,0.0,0.0,100,0.00,,,0.98,VWS V13.01,2013-06-18 03:49:00,
2013-06-17 22:50:00,65.8,65.8,17.72,SSW,192,0.0,0.0,100,0.00,,,0.98,VWS V13.01,2013-06-18 03:50:00,
2013-06-17 22:51:00,65.7,65.7,17.72,SSW,192,0.0,0.0,100,0.00,,,0.98,VWS V13.01,2013-06-18 03:51:00,
2013-06-17 22:52:00,65.7,65.7,17.72,SSW,192,0.0,0.0,100,0.00,,,0.98,VWS V13.01,2013-06-18 03:52:00,
2013-06-17 22:53:00,65.7,65.7,17.72,SSW,192,0.0,0.0,100,0.00,,,0.98,VWS V13.01,2013-06-18 03:53:00,
2013-06-17 22:54:00,65.7,65.7,17.72,SSW,192,0.0,0.0,100,0.00,,,0.98,VWS V13.01,2013-06-18 03:54:00,
2013-06-17 22:56:00,65.8,65.8,17.72,SSW,192,0.0,0.0,100,0.00,,,0.98,VWS V13.01,2013-06-18 03:56:00,
2013-06-17 22:57:00,65.8,65.8,17.72,SSW,192,0.0,0.0,100,0.00,,,0.98,VWS V13.01,2013-06-18 03:57:00,
2013-06-17 22:58:00,65.8,65.8,17.72,SSW,192,0.0,0.0,100,0.00,,,0.98,VWS V13.01,2013-06-18 03:58:00,
2013-06-17 22:59:00,65.7,65.7,17.72,SSW,192,0.0,0.0,100,0.00,,,0.98,VWS V13.01,2013-06-18 03:59:00,
2013-06-17 23:01:00,65.7,65.7,17.72,SSW,192,0.0,0.0,100,0.00,,,0.98,VWS V13.01,2013-06-18 04:01:00,
2013-06-17 23:06:00,65.7,65.7,17.72,SSW,192,0.0,0.0,100,0.00,,,0.98,VWS V13.01,2013-06-18 04:06:00,
2013-06-17 23:11:00,65.7,65.7,17.72,SSW,192,0.0,0.0,100,0.00,,,0.98,VWS V13.01,2013-06-18 04:11:00,
2013-06-17 23:16:00,65.8,65.8,17.72,SSW,192,0.0,0.0,100,0.00,,,0.98,VWS V13.01,2013-06-18 04:16:00,
2013-06-17 23:21:00,65.7,65.7,17.72,SSW,192,0.0,0.0,100,0.00,,,0.98,VWS V13.01,2013-06-18 04:21:00,
2013-06-17 23:26:00,65.8,65.8,17.72,SSW,192,0.0,0.0,100,0.00,,,0.98,VWS V13.01,2013-06-18 04:26:00,
2013-06-17 23:31:00,65.7,65.7,17.72,SSW,192,0.0,0.0,100,0.00,,,0.98,VWS V13.01,2013-06-18 04:31:00,
2013-06-17 23:36:00,65.7,65.7,17.72,SSW,192,0.0,0.0,100,0.00,,,0.98,VWS V13.01,2013-06-18 04:36:00,
2013-06-17 23:41:00,65.5,65.5,17.72,SSW,192,0.0,0.0,100,0.00,,,0.98,VWS V13.01,2013-06-18 04:41:00,
2013-06-17 23:46:00,64.9,64.9,17.72,SSW,192,0.0,0.0,100,0.00,,,0.98,VWS V13.01,2013-06-18 04:46:00,
2013-06-17 23:51:00,64.6,64.6,17.72,SSW,192,0.0,0.0,100,0.00,,,0.98,VWS V13.01,2013-06-18 04:51:00,
2013-06-17 23:52:00,64.8,64.8,17.72,SSW,192,0.0,0.0,100,0.00,,,0.98,VWS V13.01,2013-06-18 04:52:00,
2013-06-17 23:56:00,64.8,64.8,17.72,SSW,192,0.0,0.0,100,0.00,,,0.98,VWS V13.01,2013-06-18 04:56:00,
2013-06-17 23:57:00,64.8,64.8,17.72,SSW,192,0.0,0.0,100,0.00,,,0.98,VWS V13.01,2013-06-18 04:57:00,